                ,  0.290,  0.386,  0.483,  0.580,  0.676,  0.773,  0.869,  0.966,  1.063,  1.159,  1.256,  1.352,  1.449,  1.545,  1.642,  1.739,  1.835,  1.932,  2.028,  2.125,  2.222,  2.318,  2.415,  2.511,  2.608,  2.705,  2.801,  2.898,  2.994,  3.091,  3.188,  3.284,  3.381,  3.477,  3.574,  3.671,  3.767,  3.864,  3.960,  4.057,  4.153,  4.250,  4.347,  4.443,  4.540,  4.636,  4.733,  4.830,  4.926,  5.023,  5.119,  5.216,  5.313,  5.409,  5.506,  5.602,  5.699,  5.796
1999/06/03 00:00,  999.0,  999.0,   -1.1,    0.7,    0.8,    0.4,    0.1,   -1.0,   -1.9,   -1.1,   -1.6,   -4.6,   -4.6,   -3.7,   -3.5,   -3.9,   -2.5,   -2.6,   -3.0,  999.0,  999.0,  999.0,  999.0,  999.0,  999.0,  999.0,  999.0,   -3.7,  999.0,  999.0,  999.0,  999.0,  999.0,   28.7,   15.1,  999.0,   12.8,   17.0,  999.0,   14.2,    8.1,    6.4,    9.8,    5.0,   12.6,    6.4,    5.1,    3.7,  999.0,    4.8,    2.0,    0.1,    0.4,    0.6,    0.3,    0.7,    0.5,    1.1
1999/06/03 00:10,  999.0,    3.9,    1.8,    0.5,    0.3,    1.2,    0.6,   -0.6,   -2.8,   -2.1,   -3.2,   -4.9,   -5.9,   -7.5,   -7.0,   -5.9,   -6.5,   -8.0,   -7.4,  999.0,  999.0,  999.0,  999.0,   -2.7,  999.0,   -0.2,  999.0,  999.0,  999.0,   19.3,   18.0,  999.0,   14.3,   13.1,   11.3,    9.1,    8.2,    5.5,    4.4,    1.4,    1.0,    0.6,    0.7,    0.5,    0.6,    0.7,    1.0,    1.4,    1.8,    1.1,    1.2,    0.9,    1.2,    1.1,    0.7,    0.7,   -0.3,    0.7
1999/06/03 00:20,  999.0,    2.8,    2.2,    1.1,    1.0,    0.9,    0.5,    1.0,    0.1,   -1.1,   -1.4,   -2.3,   -2.6,   -3.7,   -2.7,  999.0,    1.2,  999.0,  999.0,  999.0,  999.0,   41.4,  999.0,  999.0,   28.5,  999.0,   26.0,   -7.9,    8.4,   30.8,   22.9,   25.4,   19.3,   15.5,   11.4,   -1.9,  -16.5,    5.8,  -18.8,  999.0,    1.2,  -21.7,    1.1,  -10.1,    1.7,  -21.4,    0.6,    0.4,    0.7,    0.6,  -19.7,    1.2,    0.4,    0.6,  999.0,  999.0,    0.7,    0.5
1999/06/03 00:30,  999.0,    4.9,    2.7,    0.7,   -0.4,   -3.3,   -3.1,   -3.7,   -3.9,   -1.1,    0.0,   -2.6,  999.0,   -4.8,  -11.5,  -12.3,  -10.4,  -11.6,   -8.9,   -5.4,  999.0,  999.0,  999.0,   -6.6,   -5.5,  999.0,  999.0,  999.0,  -22.2,  -21.6,  -23.2,   -8.9,    0.5,   -3.4,   -9.5,  999.0,  -24.1,  -13.3,  -26.7,  -14.3,   -0.7,  -15.4,  -15.9,  -16.7,  -16.9,  -34.5,  999.0,  999.0,  999.0,    4.2,   42.1,   21.5,    0.8,    0.7,    1.1,    0.5,   20.7,   11.4
1999/06/03 00:40,  999.0,  999.0,    2.1,    2.7,    3.4,   -0.1,    0.7,   -0.0,   -2.0,   -0.0,   -3.4,   -2.9,   -0.6,   -7.4,   -8.6,   -9.8,  -14.0,  999.0,   -0.2,   -6.8,  999.0,  999.0,  999.0,    3.7,  999.0,    3.2,   -0.4,  999.0,   -0.4,   -4.6,   -8.6,   -9.4,   -9.0,  -12.2,   -1.0,   -8.1,  -14.1,  -12.4,  999.0,  -40.5,  -21.3,  -15.7,  999.0,  -41.4,  -41.8,  -42.1,  -41.8,  -41.6,  -41.8,  -41.1,  -41.8,  -42.0,  -42.3,  -14.1,   -0.3,    0.0,  -13.7,  -14.1
1999/06/03 00:50,  -16.7,  999.0,    2.7,   -1.0,    0.8,    0.4,    6.9,   18.4,    4.6,    3.4,    0.0,   -9.3,   -4.1,   -4.7,   -5.2,   -0.9,  -20.1,  -20.8,  999.0,   -3.1,  999.0,  999.0,   -9.8,  -10.5,   -9.8,  -17.1,  999.0,  999.0,  999.0,  999.0,  999.0,  999.0,  999.0,  999.0,   -5.8,  999.0,   17.0,   -2.3,   -0.6,  999.0,  999.0,  999.0,   31.4,  999.0,  -20.8,  -20.7,  -18.6,  -11.1,  -42.2,    5.0,    0.0,  -20.0,  -20.1,   -9.8,  999.0,   -5.5,    0.1,   10.8
1999/06/03 01:00,  -20.7,  999.0,    1.2,    1.1,    0.3,  999.0,    0.7,   -0.1,   -1.6,   -2.0,   -0.9,   -1.3,   -1.4,   -2.1,   -2.2,   -2.9,   -3.6,   -5.0,   -4.0,   -7.5,  999.0,   -8.4,   -6.4,   -6.6,   -8.1,  999.0,   12.5,  999.0,  999.0,  999.0,  999.0,  999.0,   -0.9,  999.0,   -0.5,   -1.0,   -0.4,  999.0,   -0.5,   -0.5,  999.0,   -0.4,   -1.1,   -0.8,   -0.9,  999.0,   -0.8,    0.0,   -0.6,   -0.6,   -1.1,   -0.7,   -1.1,  999.0,   -0.4,  999.0,    1.1,    0.3
1999/06/03 01:10,  999.0,    3.9,   -0.0,    0.2,    2.4,    3.2,    0.1,    0.2,   -0.3,   -1.0,   -1.6,   -1.7,   -2.1,   -2.2,   -1.9,   -3.1,   -3.3,   -6.7,   -5.9,   -6.3,   -7.6,   -6.4,   -7.7,   -5.5,   -5.6,    0.4,  999.0,  999.0,  999.0,  999.0,  999.0,   -0.5,  999.0,   -1.1,  999.0,  999.0,   -0.7,   -1.0,   -9.2,  -10.8,   -1.0,   -0.9,   -0.7,   -0.3,   -0.5,  999.0,  -14.2,   -0.6,  -21.4,   -0.3,   -0.7,  -21.1,  -21.2,   -0.9,  -15.8,   -0.8,  -11.4,  999.0
1999/06/03 01:20,   -3.9,  999.0,  999.0,    0.3,   -0.1,   -0.2,    0.0,   -0.3,   -1.5,   -1.9,   -2.1,   -2.6,   -3.0,   -5.9,   -3.5,   -4.4,   -5.2,  999.0,  999.0,  999.0,  999.0,  999.0,  999.0,  999.0,  999.0,  999.0,  999.0,  999.0,  999.0,   -0.6,  999.0,   -0.9,   -0.7,   -0.6,   -0.6,   -0.4,   -0.8,   -0.6,   -0.7,   -1.3,   -1.3,   -0.6,   -0.9,   -1.2,   -1.2,   -0.3,   -0.8,   -1.0,   -0.8,   -0.6,   -0.5,   -0.6,   -0.8,   -0.8,   -0.2,   -0.5,  999.0,  999.0
1999/06/03 01:30,    0.5,   -1.9,    1.4,    0.3,   -0.1,   -0.0,   -0.9,   -1.8,   -2.6,   -3.8,   -4.0,  -12.4,  -20.9,  -21.1,  999.0,  -18.5,  -17.7,  -15.6,  999.0,  999.0,  999.0,  999.0,  999.0,  999.0,   -5.0,  999.0,   -1.4,  999.0,  999.0,   -0.3,  999.0,   -0.8,   -0.2,   -0.8,   -0.4,   -0.6,   -0.9,   -1.1,   -0.4,   -1.0,   -0.6,   -1.0,   -1.1,   19.8,   -0.5,   -0.6,   13.4,   -0.3,   20.4,   -0.9,   -0.8,   13.4,    0.0,   20.2,   20.6,   -0.6,   -0.3,   13.7
1999/06/03 01:40,  999.0,    1.1,    1.3,    2.6,    0.6,   -0.3,   -0.8,   -1.3,   -1.5,   -1.6,  999.0,  999.0,  999.0,  999.0,  -33.5,  -31.2,  -35.2,  -41.9,  -42.0,  -31.5,  999.0,  999.0,  999.0,  -41.9,  -42.1,  999.0,  -20.7,  999.0,  -20.5,  999.0,  999.0,  999.0,  999.0,  -42.1,  -41.5,  999.0,  999.0,  -41.3,  -41.7,  -41.6,  -41.9,  -42.0,  -42.3,  -26.0,  -14.3,  -20.6,  -41.6,  -20.8,  999.0,  -41.2,    1.2,  999.0,  -20.1,    4.8,   -2.1,   -0.0,   13.2,   15.4
1999/06/03 01:50,  999.0,    0.6,    1.2,    2.3,    1.9,    1.4,   -4.2,   -0.8,   -0.4,   -0.9,  999.0,  999.0,  999.0,  999.0,  999.0,  999.0,  999.0,  999.0,  999.0,  999.0,  999.0,  999.0,  999.0,   -6.9,  -13.8,  -15.2,  -15.6,  -31.5,  -16.6,  -32.8,  -16.8,  999.0,   -2.1,   -1.7,  -12.9,  999.0,  -13.3,  -13.0,   -0.5,  -13.4,   -0.9,  999.0,   -2.1,  -23.3,  -25.0,  -40.7,  -17.5,  -26.9,  -22.1,   -8.8,  -33.6,  -29.3,  -20.2,  -32.2,  -28.7,  -34.1,  -42.3,  -34.8
1999/06/03 02:00,  999.0,  999.0,    9.1,   -2.7,   -1.9,  -21.2,   -4.6,    7.8,   -0.9,   -9.6,  999.0,   23.6,   23.1,   27.3,  999.0,  999.0,  999.0,  999.0,  999.0,  999.0,  -13.1,  999.0,   -6.8,   -3.3,   -0.1,  999.0,   -1.1,   40.7,   35.1,   32.1,  -13.8,  999.0,  -20.4,  -23.9,  999.0,   -9.3,  -23.0,  -19.3,  -20.5,  999.0,  -21.2,  999.0,  999.0,   21.0,   41.5,   10.9,   21.1,   35.5,   39.2,   39.2,    8.3,   26.8,   12.9,   27.1,   13.6,   41.2,   41.5,   41.5
1999/06/03 02:10,   -5.2,  999.0,    4.6,    1.6,   -0.2,   -0.0,    0.2,   -0.0,   -1.5,  999.0,   -7.6,  999.0,  999.0,  999.0,  999.0,  999.0,  999.0,  999.0,  999.0,  999.0,  999.0,  999.0,  999.0,  999.0,  999.0,  999.0,  999.0,  999.0,  999.0,  999.0,    7.5,    6.5,  999.0,    4.6,    4.2,   16.7,    2.0,  999.0,   -0.4,   17.4,   19.0,   20.4,  999.0,   10.1,   23.8,   36.4,    8.5,    8.1,    8.5,   30.7,   38.8,   33.2,   34.3,   35.7,   37.2,   38.5,   39.8,   42.1
1999/06/03 02:20,   -5.4,  999.0,  999.0,  999.0,   -0.6,    0.1,   -0.4,   -1.5,   -1.5,   -2.3,  999.0,  999.0,  999.0,  999.0,  999.0,  999.0,  999.0,  999.0,  999.0,  999.0,  999.0,  999.0,  999.0,  999.0,   25.5,  999.0,   15.4,   16.7,   14.1,   28.3,   12.5,    1.2,   12.0,   11.7,   12.2,   15.9,    2.0,    1.3,    1.3,   12.7,   19.7,    7.1,   17.4,   10.5,   24.2,   25.2,   23.6,   24.9,   29.2,   27.8,   31.4,   39.8,   29.0,   34.0,   36.5,   34.5,   39.6,   38.7
1999/06/03 02:30,   -6.6,  999.0,  999.0,  999.0,  999.0,    0.5,    1.0,   -0.2,   -1.5,   -2.6,   -1.8,  999.0,  999.0,  999.0,  999.0,  999.0,  999.0,  999.0,  999.0,  999.0,  999.0,  999.0,  999.0,  999.0,   33.9,   21.7,   21.5,  999.0,   40.7,    2.1,   21.8,   42.4,   41.4,   41.5,   21.2,   27.4,   41.5,   27.8,  999.0,  999.0,   29.6,   41.8,   26.5,   27.4,   33.0,   29.9,   31.2,   32.7,   41.7,   37.2,   38.3,   42.0,   40.0,   40.8,   41.8,   42.3,   41.7,   41.4
1999/06/03 02:40,  -19.8,  999.0,  999.0,  999.0,   -0.2,   -0.1,   -0.9,   -1.4,   -1.9,   -2.4,   -2.1,  999.0,  999.0,  999.0,  999.0,  999.0,  999.0,  999.0,  999.0,  999.0,  999.0,  999.0,   12.5,   41.4,    9.0,   41.3,   22.8,   22.0,   21.2,  999.0,   27.7,   42.9,   37.7,   26.0,   24.2,   21.2,  999.0,   -0.2,   42.1,   42.1,    1.2,    0.3,   28.0,   30.4,   35.7,   27.3,   -0.8,   16.6,   19.9,   32.8,   36.5,  999.0,   27.1,   31.7,   21.1,  999.0,   41.9,   41.8
1999/06/03 02:50,   -4.0,  999.0,  999.0,  999.0,  999.0,  999.0,   -0.9,   -1.3,   -1.4,   -1.9,   -2.2,  999.0,  999.0,  999.0,  999.0,  999.0,  999.0,  999.0,  999.0,  999.0,  999.0,  999.0,   35.1,   37.2,   37.1,   37.4,   39.5,   40.2,  999.0,   41.6,   42.1,   41.7,   41.2,   41.8,   41.7,   41.7,   41.5,   41.4,   42.2,   41.6,   41.6,   41.4,   41.8,   41.9,   41.9,   41.7,   36.9,   30.1,   42.2,   23.0,   22.5,   37.3,   42.0,   42.0,   42.0,   41.6,   41.7,   41.7
1999/06/03 03:00,  -10.6,  999.0,  999.0,    1.2,  999.0,  999.0,   -0.2,   -0.5,   -1.2,   -1.0,   -0.9,  999.0,  999.0,  999.0,  999.0,  999.0,  999.0,  999.0,  999.0,  999.0,  999.0,   15.2,   16.9,   21.9,   35.1,   36.7,   38.3,   39.2,   22.6,   29.2,   39.0,   35.8,   42.3,   42.6,  999.0,   36.2,   35.0,   42.5,   24.9,   17.1,   42.2,   42.6,   42.2,   42.0,   42.0,   42.4,   27.8,   42.4,   35.1,   42.3,   42.5,   42.3,  999.0,   42.3,   42.3,  999.0,   41.9,  999.0
1999/06/03 03:10,   -6.5,  999.0,  999.0,  999.0,  999.0,  999.0,   -0.5,   -0.8,   -1.4,   -0.9,   -2.0,   -0.4,  999.0,  999.0,  999.0,  999.0,  999.0,  999.0,  999.0,  999.0,  999.0,   32.9,   36.0,   38.9,   38.5,   39.4,   41.2,   42.0,   42.1,   42.3,   42.5,   42.0,   41.8,   41.8,   42.4,   42.2,   41.8,   41.9,   42.4,  999.0,   42.2,   42.0,   41.6,   41.7,   41.5,   41.7,   41.8,   42.0,   41.7,   42.2,   41.9,   42.4,   41.8,   41.8,   31.6,   35.2,   42.0,   42.1
1999/06/03 03:20,   -6.2,  999.0,    8.6,  999.0,  999.0,   -0.7,    0.1,   -0.7,   -0.9,   -1.4,   -1.6,  999.0,  999.0,  999.0,  999.0,  999.0,  999.0,  999.0,  999.0,  999.0,   35.4,  999.0,   38.2,   38.0,   40.6,   41.6,   41.6,   41.9,   41.2,  999.0,   42.0,   41.9,   42.0,   41.7,   41.6,   42.1,   42.0,   41.6,   42.1,   41.9,   41.7,   42.2,   42.2,   42.1,   42.1,   42.0,   20.5,   41.8,   42.0,   42.0,   42.1,  999.0,   41.3,   41.4,   41.6,   41.6,   41.7,   41.9
1999/06/03 03:30,  999.0,  999.0,  999.0,  999.0,   -1.4,   -0.4,   -0.3,   -0.4,   -1.6,   -2.1,  999.0,  999.0,  999.0,  999.0,  999.0,  999.0,  999.0,  999.0,  999.0,  999.0,  999.0,   41.8,   41.9,  999.0,   42.4,   41.6,   41.8,   41.6,   41.7,  999.0,   41.8,   41.7,   42.0,   41.8,   41.8,   27.1,   27.9,   41.7,   21.3,   41.4,   38.4,   42.0,   26.4,   41.4,   41.7,  999.0,   41.8,   39.0,   36.5,   35.1,   31.6,   36.2,   40.9,   35.2,   31.4,   36.9,   41.6,   41.5
1999/06/03 03:40,   -0.8,  999.0,  999.0,   -0.7,  999.0,   -0.8,   -0.8,  999.0,   -1.0,   -2.1,  999.0,  999.0,  999.0,  999.0,  999.0,  999.0,  999.0,  999.0,  999.0,  999.0,  999.0,   41.5,   42.3,   40.5,   41.8,   41.3,   31.6,   41.2,   34.3,   42.1,   41.6,   41.5,   42.4,   42.2,   41.8,   41.8,   42.1,   42.2,   41.7,   41.8,   41.3,   41.7,   42.1,   41.6,   35.5,   41.7,   42.0,   41.8,   42.0,   42.1,   41.9,   42.0,   41.9,   41.7,   41.6,   41.6,   42.4,   42.9
1999/06/03 03:50,  999.0,  999.0,  999.0,  999.0,    1.1,   -0.5,    0.3,    0.5,  999.0,  999.0,  999.0,  999.0,  999.0,  999.0,  999.0,  999.0,  999.0,  999.0,  999.0,  999.0,  999.0,  999.0,  999.0,  999.0,  999.0,  999.0,  999.0,  999.0,  999.0,  999.0,    0.9,  999.0,    0.9,  999.0,  999.0,  999.0,  999.0,   36.9,   36.2,  999.0,  999.0,  999.0,  999.0,  999.0,  999.0,  999.0,  999.0,  999.0,  999.0,    1.0,   41.7,   40.1,   38.5,   19.7,   20.3,   27.6,   34.7,   31.6
1999/06/03 04:00,   -5.3,  999.0,  999.0,  999.0,  -20.1,  -19.6,  -19.9,  -20.7,  -21.8,  -21.5,  -21.8,  -21.8,  -20.6,  -21.1,  -20.4,  -20.9,  -20.3,  -19.5,   -1.2,  999.0,  -19.7,  -17.6,  -18.2,  -14.8,  -14.4,    4.6,  -13.6,    5.2,  -11.5,  -11.2,  -10.1,   -9.0,   -8.8,   -8.4,   -6.7,   -6.1,   -4.6,   -4.4,   -3.5,   -2.9,  999.0,   -1.2,   -0.6,   -0.7,   -0.7,   -0.6,   -1.0,   -0.3,   -0.7,  999.0,   -1.1,  999.0,   -0.9,  999.0,   21.1,   13.3,  999.0,   13.6
1999/06/03 04:10,   -3.6,  -12.4,  -19.8,  -17.8,  -20.7,  -17.3,  -16.7,  -17.4,  -19.2,  -20.3,  -20.8,  -21.5,  -21.8,  -21.6,  -21.6,  -21.3,  -21.3,  -21.7,  -20.5,  -18.9,  -18.1,  -15.8,  -14.6,  -14.5,   -9.0,  -11.7,   -8.9,   -6.3,   -5.7,   -3.6,  999.0,   -4.6,   -2.4,   -1.2,   -1.3,   -0.8,   -0.8,   -0.9,   -0.5,   -0.7,   -0.5,   -1.2,   -0.8,   -0.5,   -0.9,   -0.3,   -0.6,   -0.8,   -0.9,   -0.6,   -0.9,   -0.3,   -0.6,   -0.6,   -0.7,   -0.6,   -0.7,   -0.6
1999/06/03 04:20,   -0.6,  999.0,  999.0,  -10.9,  -13.3,  -14.9,  -17.6,  -17.5,  -18.8,  -19.8,  -20.5,  -21.2,  -21.6,  -21.5,  -21.9,  -21.4,  -21.0,  -19.7,  -18.5,  -17.3,  -15.5,  -12.3,  -12.9,  -10.0,   -7.5,   -6.9,   -5.2,   -3.4,   -2.0,   -1.5,   -0.8,  999.0,   -0.5,   -0.6,   -0.9,   -0.8,   -0.3,   -0.7,   -0.9,   -0.4,   -1.0,   -0.9,   -1.0,   -0.8,   -0.9,   -0.6,   -1.4,   -0.2,   -0.8,   -0.8,   -0.7,   -0.5,   -0.5,   -1.0,   -0.6,   -0.6,   -1.3,   -0.6
1999/06/03 04:30,   -3.0,  999.0,  -12.0,  -17.1,  -20.0,  -20.6,  -20.2,  -20.7,  -20.8,  -21.0,  -20.2,  -21.0,  -21.2,  -20.9,  -21.0,  -20.9,  -20.1,  -18.6,  -19.1,  -16.3,  -13.5,  999.0,   -9.9,  999.0,   -5.7,   -3.6,   -1.0,   -0.4,   -0.8,   -1.2,   -0.3,   -0.6,   -0.3,   -0.2,   -0.4,   -0.4,   -0.7,   -0.6,   -0.5,   -0.8,   -0.8,  999.0,   -0.7,   -0.5,   -0.6,   -0.8,   -0.7,   -0.9,   -0.9,   -1.0,   -0.9,   -1.0,   -0.9,   -1.0,   -0.8,   -0.7,   -1.2,   -0.1
1999/06/03 04:40,  999.0,  999.0,  -12.3,  -16.2,  -18.7,  -21.0,  -20.8,  -20.9,  -21.6,  -21.8,  -21.0,  -21.1,  -21.3,  -21.2,  -21.3,  -21.5,  -21.1,  -20.1,  -17.9,  -14.6,  -14.4,  -12.3,   -9.9,   -6.7,   -4.7,   -4.1,   -1.8,   -0.9,   -0.8,   -0.4,   -0.7,   -0.4,   -0.3,   -1.0,   -0.5,   -0.6,   -0.2,   -0.6,   -0.8,   -0.3,   -0.4,   -0.7,   -0.8,   -0.8,   -0.2,   -0.3,   -0.9,   -0.7,   -0.6,   -1.0,   -1.0,   -0.9,   -0.8,   -1.0,   -0.5,   -0.5,   -1.0,   -0.6
1999/06/03 04:50,  999.0,  -10.1,  -14.9,   -8.6,  -20.9,  -21.3,  -18.9,  -19.3,  -20.6,  -21.3,  -21.2,  -21.4,  -21.4,  999.0,  -21.1,  -21.3,  -20.7,  -20.1,  -16.5,  -17.2,  -13.4,  -10.7,  -10.2,   -8.2,   -6.8,   -3.6,   -1.1,   -0.4,   -0.7,   -0.6,   -0.8,   -1.2,   -1.3,   -0.6,   -1.2,   -0.7,   -0.5,   -1.3,  999.0,   -0.8,   -0.6,   -0.9,   -0.9,   -1.0,   -0.5,   -0.4,   -0.4,   -0.7,   -0.8,   -0.6,   -0.5,   -0.7,   -0.4,   -0.5,   -0.5,   -0.6,  999.0,   -0.7
1999/06/03 05:00,   -6.9,  999.0,  999.0,  -20.5,  -20.3,  -21.1,  -19.9,  -20.7,  -21.5,  -20.9,  999.0,  -21.2,  -21.1,  -21.3,  -21.4,  -21.2,  -20.7,  -19.8,  -19.8,  -18.5,  -16.6,  -14.9,  999.0,  -14.2,  999.0,  -12.4,  -10.5,   -9.1,   -7.5,   -7.5,   -4.5,   -4.1,   -2.2,   -1.3,   -1.0,   -1.9,   -0.7,   -1.8,   -0.6,   -0.0,   -0.7,   -0.9,   -0.8,   -1.1,   -1.2,   -0.5,   -1.0,   -0.8,   -0.5,   -0.0,   -0.4,   -0.5,   -0.6,   -0.5,   -0.9,   -0.4,   -0.9,   -1.2
1999/06/03 05:10,  999.0,  999.0,  999.0,  999.0,  999.0,  999.0,  -20.9,  999.0,   -1.9,  -20.7,  -20.9,  -21.6,  -21.2,  999.0,  -19.8,  -21.6,  -21.7,  -20.7,  -19.0,  -18.1,  -17.1,  -16.1,  -15.0,  -14.8,  -12.4,  999.0,  999.0,  -12.6,  -11.8,  -11.5,  -10.9,  -10.2,  -10.2,  999.0,   -8.2,  999.0,   -7.8,   -6.5,   -5.9,  999.0,   -5.4,   -4.3,   -3.5,  999.0,  999.0,  999.0,   -0.9,  999.0,   -2.1,  999.0,  999.0,   -0.8,  999.0,  999.0,  999.0,  999.0,  999.0,   19.8
1999/06/03 05:20,  999.0,  999.0,  999.0,  999.0,  999.0,  999.0,  999.0,  999.0,  999.0,  -20.5,  -20.6,  999.0,  -21.5,  -21.6,  -21.6,  -21.9,  -21.7,  -19.7,  -18.7,  -24.3,  -18.6,  -15.8,  -33.9,  999.0,  -17.2,  999.0,  -15.4,  999.0,  999.0,  999.0,  -11.5,  999.0,  999.0,   -8.4,   -8.0,   -6.7,  999.0,  -42.4,  999.0,  999.0,  -31.0,  999.0,   -0.8,  999.0,  999.0,  999.0,  999.0,  999.0,  999.0,  999.0,  999.0,  999.0,  999.0,   41.8,   42.0,  999.0,   42.0,   41.2
1999/06/03 05:30,  999.0,  999.0,  999.0,  999.0,  -21.2,  -21.0,  -20.5,  -21.2,  -21.8,  -21.2,  -21.2,  -21.3,  -21.2,  -21.7,  -21.7,  -21.4,  -21.1,  -20.5,  -19.8,  999.0,  -17.0,  -19.0,  -15.7,  999.0,  -12.6,  999.0,  999.0,  999.0,  999.0,  999.0,  999.0,  999.0,  999.0,  999.0,  999.0,  999.0,  999.0,   42.1,  999.0,  999.0,   30.7,   11.9,    7.7,   20.6,  999.0,  999.0,   18.1,  999.0,  999.0,   26.2,   42.2,   30.7,   31.3,   21.2,   28.0,   34.9,   41.5,   35.0
1999/06/03 05:40,  999.0,  -21.1,  -21.4,  -21.2,  -20.9,  -20.6,  -20.8,  -20.9,  -21.5,  -21.1,  -21.4,  -21.2,  -21.1,  -21.7,  -21.4,  -21.4,  -21.8,  -21.6,  -21.1,  -20.4,  -18.4,  -17.0,  -14.7,  -12.4,  -10.8,   -9.0,  999.0,  999.0,  999.0,  999.0,  999.0,  999.0,  999.0,  999.0,  999.0,  999.0,  999.0,  999.0,  999.0,  999.0,  999.0,  999.0,  999.0,  999.0,  999.0,  999.0,   42.5,   42.0,   42.2,   41.8,   41.7,   41.6,   41.7,   42.0,   41.7,   42.4,   41.7,   41.7
1999/06/03 05:50,  999.0,  999.0,  999.0,  999.0,  -21.6,  -21.1,  -20.7,  -20.8,  -20.8,  -20.7,  -20.7,  -21.4,  -21.5,  -21.7,  -21.7,  -21.7,  -21.3,  -20.9,  -19.8,  -18.6,  -17.3,  -13.2,  999.0,  999.0,  999.0,  999.0,  999.0,  999.0,  999.0,  999.0,  999.0,  999.0,  999.0,  999.0,  999.0,  999.0,  999.0,  999.0,  999.0,  999.0,  999.0,  999.0,  999.0,  999.0,  999.0,   41.9,   42.0,   41.8,   41.9,   41.8,   41.7,   41.9,   42.5,   42.4,   41.7,   41.9,   41.8,   42.1
1999/06/03 06:00,  999.0,  999.0,  999.0,  999.0,  -20.3,  -15.4,  -21.2,  -21.4,  -16.3,  -21.4,  -21.5,  -21.5,  -21.2,  -21.5,  -21.3,  -21.5,  -21.4,  -22.0,  -20.9,  -19.1,  -17.1,  -14.8,  999.0,  999.0,   -9.9,  999.0,  999.0,  999.0,  999.0,  999.0,  999.0,  999.0,  999.0,  999.0,  999.0,   -0.9,   -0.9,  999.0,  999.0,  999.0,  999.0,   41.7,   42.0,   41.7,   42.0,   41.6,  999.0,   41.6,   42.0,   41.1,   41.8,   39.0,   41.5,   35.5,   41.0,   28.4,   41.3,   41.6
1999/06/03 06:10,  999.0,  999.0,  999.0,  999.0,   -0.0,  -17.4,  -10.6,  -20.5,  -21.0,  -21.1,  -14.3,  -14.3,  -21.8,    1.7,  -21.6,    2.2,  -18.5,  -14.7,  -14.9,  -14.4,   10.4,   10.4,   12.2,   13.5,   15.3,   38.1,    2.6,   40.9,   41.9,   41.4,   27.1,  999.0,  999.0,   42.2,   41.6,  999.0,  999.0,  999.0,   42.7,  999.0,   41.1,   42.1,   42.3,   41.8,   42.1,   42.2,   41.4,   41.6,   41.1,   41.5,   41.4,   42.4,  999.0,   42.3,   41.8,   41.5,  999.0,   41.6
1999/06/03 06:20,  999.0,  999.0,  999.0,  999.0,  999.0,  -21.2,    3.5,  -21.0,  999.0,  999.0,  -20.5,  999.0,  999.0,  999.0,  999.0,  999.0,  999.0,  -20.8,  999.0,  999.0,  -18.6,  999.0,  999.0,  999.0,   21.6,   26.4,    9.9,    8.8,    6.1,    6.8,  -13.9,   11.1,   16.4,   11.6,   16.1,   31.1,    8.8,   -9.9,   32.8,   18.1,   13.5,   17.3,   16.0,   35.0,   18.5,   31.5,  999.0,   -0.2,    0.5,   21.4,   19.4,   19.9,    1.2,   14.2,    0.7,    1.3,   14.6,    0.7
1999/06/03 06:30,  999.0,  999.0,  999.0,  999.0,   23.0,  999.0,    6.2,  -20.9,   -0.5,  -20.9,    0.7,  999.0,  -21.4,  999.0,  -21.8,  999.0,   -6.0,  999.0,   -7.3,  -22.2,  -24.2,  -25.5,  -13.5,  -20.4,  -28.4,  -20.9,  -17.6,   -9.6,  -17.2,  -17.1,  -16.8,   -6.3,   -5.8,   -5.6,   -0.2,   18.6,  -15.6,  -22.4,   42.6,   42.3,   21.3,   22.4,  999.0,   42.2,   42.3,   16.5,   42.6,   23.5,   27.3,   31.4,  999.0,   39.8,   42.2,   42.1,   42.2,   41.8,  999.0,   41.9
1999/06/03 06:40,  999.0,   21.6,  999.0,   21.9,  999.0,    2.4,   11.6,   16.3,   21.5,  999.0,   10.3,   15.9,   21.4,   21.5,   22.5,   22.9,   23.4,  999.0,   25.2,  999.0,  999.0,  999.0,  999.0,  -11.0,   18.8,    6.2,   14.1,    1.7,   24.6,   25.2,   11.4,    4.6,   41.9,   -1.0,   -1.8,    5.9,   -0.7,   -1.0,   -0.3,   41.7,   41.5,   -1.1,  999.0,   41.8,   42.1,   -0.8,  999.0,   41.9,  999.0,  999.0,   41.4,   41.4,   41.9,  999.0,   42.1,   41.0,   -1.1,   42.5
1999/06/03 06:50,  999.0,  999.0,  999.0,  999.0,  999.0,   21.0,  999.0,   20.7,  -21.2,   21.4,   -0.1,  -21.3,  999.0,  999.0,  -21.5,  -21.5,  999.0,    0.4,    1.6,  999.0,    4.4,   20.9,   30.8,   10.3,   23.1,   23.2,   36.2,    9.7,   15.9,   24.2,   23.9,   22.5,   20.8,   42.3,   20.5,    0.5,   20.6,   -1.0,  999.0,  999.0,    0.8,  999.0,   41.2,  999.0,   20.7,  999.0,  999.0,   20.6,  999.0,  999.0,   41.9,   41.8,  999.0,  999.0,  999.0,  999.0,  999.0,   41.0
1999/06/03 07:00,  999.0,  999.0,  999.0,  999.0,  999.0,  999.0,  999.0,   20.0,   22.0,   21.2,   21.5,   21.0,   20.8,  999.0,   -2.3,  999.0,  999.0,  999.0,  -27.7,  999.0,  999.0,  999.0,   14.9,  999.0,  999.0,  -34.8,    9.9,    8.9,    8.3,  -37.3,  -38.3,  -17.0,    4.0,    2.4,  -20.1,    0.3,  -20.6,    1.1,    0.7,    0.8,    0.9,   29.3,   37.2,   41.8,   11.7,   28.4,   42.2,   31.5,  999.0,   41.8,   29.9,   37.4,  999.0,  999.0,  999.0,   41.6,  999.0,   42.0
1999/06/03 07:10,  999.0,  999.0,  999.0,  999.0,  999.0,   22.3,  999.0,  999.0,   21.1,   21.4,   21.2,   21.0,   20.3,   21.1,  999.0,   23.7,   18.7,   19.0,  999.0,    7.7,   30.1,   31.8,  999.0,   34.5,  999.0,   37.2,   38.5,   20.2,  -41.6,  999.0,  999.0,   41.9,  999.0,    0.3,    1.3,  999.0,    1.4,   41.4,  999.0,  999.0,    0.9,    0.3,    0.6,  999.0,  999.0,   21.3,   23.0,  999.0,  999.0,   26.8,   34.8,   41.7,  999.0,   41.7,  999.0,   41.9,   42.2,   41.0
1999/06/03 07:20,  999.0,  999.0,  999.0,  999.0,  999.0,   21.3,  999.0,   18.4,  -20.4,   14.4,  -20.6,   21.6,    0.3,   22.2,   21.4,   20.7,   20.7,   17.2,   18.0,   17.3,   16.0,   14.9,   15.8,  999.0,   17.4,   17.9,  999.0,  999.0,   20.7,   21.2,    1.0,    0.9,  999.0,  999.0,  999.0,  999.0,    1.5,    0.8,    0.1,    1.1,  999.0,  999.0,  999.0,  999.0,  999.0,  999.0,  999.0,  999.0,  999.0,  999.0,  999.0,  999.0,   -0.2,  999.0,    0.6,  999.0,    0.1,  999.0
1999/06/03 07:30,  999.0,  999.0,  999.0,  999.0,   22.8,   21.2,  999.0,   22.1,    0.9,   21.2,   21.1,   20.7,   21.2,   20.5,   21.2,   21.5,   21.1,   20.1,   18.4,   16.0,   13.3,   11.8,   12.2,    7.5,    6.8,    7.6,    4.6,    5.1,    3.4,    4.5,    2.3,    1.3,  999.0,    0.9,    1.2,    0.6,    1.2,    1.1,  999.0,  999.0,  999.0,    0.4,    0.5,    0.1,    0.2,  999.0,  999.0,    1.2,  999.0,  999.0,    0.8,    0.7,    1.3,    1.2,  999.0,  999.0,    0.4,    0.8
1999/06/03 07:40,  999.0,   20.6,   21.3,   21.4,   15.9,   17.6,   21.4,   21.7,   22.1,   21.4,   21.4,   21.7,   21.1,   21.2,   21.2,   21.3,   21.2,   20.3,   19.2,   17.8,   16.0,   14.5,   12.6,   11.5,   10.1,    8.7,    6.3,    4.8,    2.5,    2.6,    0.7,    0.7,    0.6,    1.0,    0.7,    0.8,    0.8,  999.0,    0.8,    0.4,   -0.0,    1.2,    1.1,  999.0,    0.7,  999.0,    0.4,    3.2,  999.0,   24.1,   33.6,  999.0,  999.0,  999.0,   20.3,  -41.2,  999.0,  -41.3
1999/06/03 07:50,  999.0,   21.3,    0.1,   21.0,    7.1,   -0.1,    7.2,   21.4,    6.9,   -0.1,   -0.7,   21.0,    7.1,   21.8,    6.9,    6.7,   -2.8,  999.0,   15.8,   -7.5,   -2.9,  -13.6,    9.6,    4.6,    4.0,    3.2,    3.0,  -12.0,  -13.1,    0.8,  -20.8,  -19.9,  -20.5,    1.1,    0.8,  -20.9,  -20.3,    0.2,  999.0,  999.0,    1.1,  999.0,  -42.3,  999.0,  999.0,  999.0,    1.1,  999.0,  999.0,  999.0,    0.7,    0.9,  999.0,  999.0,  999.0,  -21.2,  -21.5,   -1.8
1999/06/03 08:00,  999.0,   21.7,   21.6,   12.0,    7.5,    6.0,    0.9,   12.7,  999.0,   11.2,   21.8,   21.8,  999.0,  999.0,   19.9,   17.0,  999.0,  999.0,    9.7,    6.9,  999.0,    2.9,  999.0,    0.5,  999.0,  999.0,  999.0,  999.0,  999.0,  999.0,  999.0,  -21.5,  999.0,  -21.3,  999.0,  -21.4,  -21.0,  -21.3,  999.0,  999.0,  999.0,  999.0,   -5.8,  999.0,  999.0,  999.0,  999.0,  999.0,  999.0,  999.0,  999.0,  999.0,  -41.6,  999.0,  999.0,  -41.9,  -42.4,  -42.4
1999/06/03 08:10,  999.0,  999.0,  999.0,    1.3,    0.9,  999.0,    4.5,    0.6,    0.7,    0.5,    3.7,    0.7,    0.6,  999.0,  999.0,  999.0,  999.0,  999.0,  999.0,  999.0,  999.0,  999.0,  999.0,  999.0,  999.0,  999.0,  999.0,  999.0,  999.0,  999.0,  999.0,  999.0,  999.0,  999.0,  999.0,  999.0,  999.0,  999.0,  999.0,  999.0,  999.0,  999.0,  999.0,  999.0,  999.0,  999.0,  999.0,  999.0,  999.0,  999.0,  999.0,  999.0,  999.0,  999.0,  999.0,  999.0,  999.0,  999.0
1999/06/03 08:20,  999.0,   -0.3,    2.0,    1.8,    1.3,    0.6,    3.0,    2.3,    1.6,    0.1,  999.0,  999.0,  999.0,  999.0,   -1.6,  999.0,  999.0,  999.0,  999.0,  999.0,  999.0,  999.0,  999.0,  999.0,  999.0,  999.0,  999.0,  999.0,  999.0,  999.0,  999.0,  999.0,  999.0,  999.0,  999.0,  999.0,  999.0,  999.0,  999.0,  999.0,  999.0,  999.0,  999.0,  999.0,  999.0,  999.0,  999.0,  999.0,  999.0,  999.0,  999.0,  999.0,  999.0,  999.0,  999.0,  999.0,  999.0,  999.0
1999/06/03 08:30,  999.0,    0.5,    1.0,    1.7,    2.2,    1.2,  999.0,  999.0,    0.4,  999.0,  999.0,  999.0,  999.0,    4.5,   -2.7,  999.0,  999.0,  999.0,  999.0,  999.0,  999.0,  999.0,  999.0,  999.0,  999.0,  999.0,  999.0,  999.0,  999.0,  999.0,  999.0,  999.0,  999.0,  999.0,  999.0,  999.0,  999.0,  999.0,  999.0,  999.0,  999.0,  999.0,  999.0,  999.0,  999.0,  999.0,  999.0,  999.0,  999.0,  999.0,  999.0,  999.0,  999.0,  999.0,  999.0,  999.0,  999.0,  999.0
1999/06/03 08:40,  999.0,    0.9,    2.1,    1.8,    2.1,    0.5,    0.8,    0.3,  999.0,    0.9,  999.0,  999.0,  999.0,  999.0,  999.0,  999.0,  999.0,  999.0,  999.0,  999.0,  999.0,  999.0,  999.0,  999.0,  999.0,  999.0,  999.0,  999.0,    1.8,  999.0,  999.0,  999.0,  999.0,  999.0,  999.0,  999.0,  999.0,  999.0,  999.0,  999.0,  999.0,  999.0,  999.0,  999.0,  999.0,  999.0,  999.0,  999.0,  999.0,  999.0,  999.0,  999.0,  999.0,  999.0,  999.0,  999.0,  999.0,  999.0
1999/06/03 08:50,  999.0,    0.3,    2.5,    1.4,    1.7,    0.1,    0.0,    1.3,    1.2,    1.8,  999.0,   -0.2,  999.0,  999.0,  999.0,  999.0,  999.0,  999.0,  999.0,  999.0,  999.0,  999.0,  999.0,  999.0,  999.0,  999.0,  999.0,  999.0,  999.0,  999.0,  999.0,  999.0,  999.0,  999.0,  999.0,  999.0,  999.0,  999.0,  999.0,  999.0,  999.0,  999.0,  999.0,  999.0,  999.0,  999.0,  999.0,  999.0,  999.0,  999.0,  999.0,  999.0,  999.0,  999.0,  999.0,  999.0,  999.0,  999.0
1999/06/03 09:00,  999.0,    0.9,    1.0,    1.2,   -0.1,    0.4,    0.0,    2.1,    1.2,   -0.0,  999.0,  999.0,  999.0,  999.0,  999.0,  999.0,  999.0,  999.0,  999.0,  999.0,  999.0,  999.0,  999.0,  999.0,  999.0,  999.0,  999.0,  999.0,    2.4,  999.0,  999.0,  999.0,  999.0,  999.0,  999.0,  999.0,  999.0,  999.0,  999.0,  999.0,  999.0,  999.0,  999.0,  999.0,  999.0,  999.0,  999.0,  999.0,  999.0,  999.0,  999.0,  999.0,  999.0,  999.0,  999.0,  999.0,  999.0,  999.0
1999/06/03 09:10,  999.0,  999.0,  999.0,  999.0,    0.8,    0.1,    0.4,    1.0,  999.0,    0.2,    0.2,  999.0,  999.0,  999.0,  999.0,  999.0,    0.3,  999.0,  999.0,  999.0,  999.0,  999.0,  999.0,   -0.5,  999.0,  999.0,  999.0,  999.0,  999.0,  999.0,  999.0,  999.0,  999.0,  999.0,  999.0,  999.0,  999.0,  999.0,  999.0,  999.0,  999.0,  999.0,  999.0,  999.0,  999.0,  999.0,  999.0,  999.0,  999.0,  999.0,  999.0,  999.0,  999.0,  999.0,  999.0,  999.0,  999.0,  999.0
1999/06/03 09:20,  999.0,    3.4,    0.1,    0.9,    2.3,    0.5,   -0.3,  999.0,  999.0,    0.5,  999.0,  999.0,  999.0,  999.0,  999.0,  999.0,  999.0,  999.0,  999.0,  999.0,  999.0,   -0.2,  999.0,  999.0,  999.0,  999.0,  999.0,  999.0,  999.0,  999.0,  999.0,  999.0,  999.0,  999.0,  999.0,  999.0,  999.0,  999.0,  999.0,  999.0,  999.0,  999.0,  999.0,  999.0,  999.0,  999.0,  999.0,  999.0,  999.0,  999.0,  999.0,  999.0,  999.0,  999.0,  999.0,  999.0,  999.0,  999.0
1999/06/03 09:30,  999.0,  999.0,    2.1,    2.6,    1.2,    0.0,   -0.1,    1.1,    1.8,    1.2,    1.3,  999.0,  999.0,  999.0,  999.0,  999.0,  999.0,   -0.6,  999.0,  999.0,  999.0,  999.0,  999.0,  999.0,  999.0,  999.0,  999.0,  999.0,  999.0,  999.0,  999.0,  999.0,  999.0,  999.0,  999.0,  999.0,  999.0,  999.0,  999.0,  999.0,  999.0,  999.0,  999.0,  999.0,  999.0,  999.0,  999.0,  999.0,  999.0,  999.0,  999.0,  999.0,  999.0,  999.0,  999.0,  999.0,  999.0,  999.0
1999/06/03 09:40,  999.0,    2.5,    3.1,    0.2,    1.1,    0.9,    0.7,    1.9,    1.5,  999.0,  999.0,  999.0,  999.0,  999.0,  999.0,  999.0,  999.0,  999.0,  999.0,  999.0,  999.0,  999.0,  999.0,  999.0,  999.0,  999.0,  999.0,  999.0,  999.0,  999.0,  999.0,  999.0,  999.0,    1.3,  999.0,  999.0,  999.0,  999.0,  999.0,  999.0,  999.0,  999.0,  999.0,  999.0,  999.0,  999.0,  999.0,  999.0,  999.0,  999.0,  999.0,  999.0,  999.0,  999.0,  999.0,  999.0,  999.0,  999.0
1999/06/03 09:50,  999.0,  999.0,    2.8,    2.0,    1.9,    2.5,    2.5,    2.8,    1.5,    0.4,    0.7,  999.0,  999.0,  999.0,  999.0,  999.0,  999.0,  999.0,  999.0,  999.0,  999.0,  999.0,  999.0,  999.0,  999.0,  999.0,  999.0,  999.0,  999.0,  999.0,  999.0,  999.0,  999.0,  999.0,  999.0,  999.0,  999.0,  999.0,  999.0,  999.0,  999.0,  999.0,  999.0,  999.0,  999.0,  999.0,  999.0,  999.0,  999.0,  999.0,  999.0,  999.0,  999.0,  999.0,  999.0,  999.0,  999.0,  999.0
1999/06/03 10:00,  999.0,    1.4,    0.9,    1.7,    1.8,    2.7,    1.8,    1.7,    0.7,    0.9,  999.0,  999.0,  999.0,   -0.1,  999.0,  999.0,  999.0,  999.0,  999.0,  999.0,  999.0,  999.0,  999.0,  999.0,  999.0,  999.0,  999.0,  999.0,  999.0,  999.0,  999.0,  999.0,  999.0,  999.0,  999.0,  999.0,  999.0,  999.0,  999.0,  999.0,  999.0,  999.0,  999.0,  999.0,  999.0,  999.0,  999.0,  999.0,  999.0,  999.0,  999.0,  999.0,  999.0,  999.0,  999.0,  999.0,  999.0,  999.0
1999/06/03 10:10,  999.0,    0.3,    1.5,    1.3,    1.7,    3.2,    0.9,    0.5,    1.3,    0.3,  999.0,  999.0,  999.0,  999.0,  999.0,  999.0,  999.0,  999.0,  999.0,  999.0,  999.0,  999.0,  999.0,  999.0,  999.0,  999.0,  999.0,  999.0,  999.0,   -1.0,  999.0,  999.0,  999.0,  999.0,  999.0,  999.0,  999.0,  999.0,  999.0,  999.0,  999.0,  999.0,    0.3,  999.0,  999.0,  999.0,  999.0,  999.0,  999.0,  999.0,  999.0,  999.0,  999.0,  999.0,  999.0,  999.0,  999.0,  999.0
1999/06/03 10:20,  999.0,    3.0,  999.0,    4.1,    2.0,    2.9,    0.8,    0.4,    1.0,    1.0,   -0.5,  999.0,  999.0,  999.0,  999.0,  999.0,  999.0,  999.0,  999.0,  999.0,  999.0,  999.0,  999.0,  999.0,  999.0,  999.0,  999.0,  999.0,  999.0,  999.0,  999.0,  999.0,  999.0,  999.0,  999.0,  999.0,  999.0,  999.0,  999.0,  999.0,  999.0,  999.0,  999.0,  999.0,  999.0,  999.0,  999.0,  999.0,  999.0,  999.0,  999.0,  999.0,  999.0,  999.0,  999.0,  999.0,  999.0,  999.0
1999/06/03 10:30,  999.0,    0.3,   -0.3,    2.8,    2.1,    3.0,    3.5,  999.0,    1.5,    1.7,  999.0,  999.0,  999.0,  999.0,  999.0,  999.0,  999.0,  999.0,  999.0,  999.0,  999.0,  999.0,  999.0,  999.0,  999.0,  999.0,  999.0,  999.0,  999.0,    1.7,  999.0,  999.0,  999.0,  999.0,  999.0,  999.0,  999.0,  999.0,  999.0,  999.0,  999.0,  999.0,  999.0,  999.0,  999.0,  999.0,  999.0,  999.0,  999.0,  999.0,  999.0,  999.0,  999.0,  999.0,  999.0,  999.0,  999.0,  999.0
1999/06/03 10:40,  999.0,    2.4,    2.5,  999.0,    2.1,    2.4,    2.9,    0.8,    1.2,    0.9,  999.0,  999.0,  999.0,  999.0,  999.0,  999.0,  999.0,  999.0,  999.0,  999.0,  999.0,  999.0,  999.0,  999.0,  999.0,  999.0,  999.0,  999.0,  999.0,  999.0,  999.0,  999.0,  999.0,  999.0,  999.0,  999.0,  999.0,  999.0,  999.0,  999.0,  999.0,  999.0,  999.0,  999.0,  999.0,  999.0,  999.0,  999.0,  999.0,  999.0,  999.0,  999.0,  999.0,  999.0,  999.0,  999.0,  999.0,  999.0
1999/06/03 10:50,  999.0,  999.0,    1.7,  999.0,    3.7,    1.5,    2.1,    1.4,    0.1,   -0.1,    0.0,  999.0,  999.0,  999.0,  999.0,  999.0,  999.0,  999.0,  999.0,  999.0,  999.0,  999.0,  999.0,  999.0,  999.0,  999.0,  999.0,  999.0,  999.0,  999.0,  999.0,  999.0,  999.0,  999.0,  999.0,  999.0,  999.0,  999.0,  999.0,  999.0,  999.0,  999.0,  999.0,  999.0,  999.0,  999.0,  999.0,  999.0,  999.0,  999.0,  999.0,  999.0,  999.0,  999.0,  999.0,  999.0,  999.0,  999.0
1999/06/03 11:00,  999.0,    2.6,    1.3,    0.3,    1.4,   -0.5,    0.8,    0.9,    0.7,    1.0,  999.0,  999.0,  999.0,  999.0,  999.0,  999.0,  999.0,  999.0,  999.0,  999.0,  999.0,  999.0,  999.0,  999.0,  999.0,  999.0,  999.0,  999.0,  999.0,  999.0,  999.0,  999.0,  999.0,  999.0,  999.0,  999.0,  999.0,  999.0,  999.0,  999.0,  999.0,  999.0,  999.0,  999.0,  999.0,  999.0,  999.0,  999.0,  999.0,  999.0,  999.0,  999.0,  999.0,  999.0,  999.0,  999.0,  999.0,  999.0
1999/06/03 11:10,  999.0,    2.2,    1.3,    2.0,    1.2,    0.6,    0.5,    0.6,    2.0,    0.6,   -1.1,  999.0,  999.0,  999.0,  999.0,  999.0,  999.0,  999.0,  999.0,  999.0,  999.0,  999.0,  999.0,  999.0,  999.0,  999.0,  999.0,  999.0,  999.0,  999.0,  999.0,  999.0,  999.0,  999.0,  999.0,  999.0,  999.0,  999.0,  999.0,  999.0,  999.0,  999.0,  999.0,  999.0,  999.0,  999.0,  999.0,  999.0,  999.0,  999.0,  999.0,  999.0,  999.0,  999.0,  999.0,  999.0,  999.0,  999.0
1999/06/03 11:20,  999.0,    1.9,  999.0,  999.0,   -2.3,   -0.4,    0.1,    0.4,   -0.8,  999.0,  999.0,  999.0,  999.0,  999.0,  999.0,  999.0,  999.0,  999.0,  999.0,  999.0,  999.0,  999.0,  999.0,  999.0,  999.0,  999.0,  999.0,  999.0,  999.0,  999.0,  999.0,  999.0,  999.0,  999.0,  999.0,  999.0,  999.0,  999.0,  999.0,  999.0,  999.0,  999.0,  999.0,  999.0,  999.0,  999.0,  999.0,  999.0,  999.0,  999.0,  999.0,  999.0,  999.0,  999.0,  999.0,  999.0,  999.0,  999.0
1999/06/03 11:30,  999.0,    1.9,    1.1,   -1.0,    0.9,   -0.3,    0.0,   -0.7,   -0.4,    0.0,  999.0,  999.0,  999.0,  999.0,  999.0,  999.0,  999.0,  999.0,  999.0,  999.0,  999.0,  999.0,  999.0,  999.0,  999.0,  999.0,  999.0,  999.0,  999.0,  999.0,  999.0,  999.0,  999.0,  999.0,  999.0,  999.0,  999.0,  999.0,  999.0,  999.0,  999.0,  999.0,  999.0,  999.0,  999.0,  999.0,  999.0,  999.0,  999.0,  999.0,  999.0,  999.0,  999.0,  999.0,  999.0,  999.0,  999.0,  999.0
1999/06/03 11:40,  999.0,   -0.2,    3.7,    2.0,    0.7,   -2.0,   -0.9,   -1.7,   -0.1,    0.1,  999.0,  999.0,  999.0,  999.0,  999.0,  999.0,  999.0,  999.0,  999.0,  999.0,  999.0,  999.0,  999.0,  999.0,  999.0,  999.0,  999.0,  999.0,  999.0,    1.4,  999.0,  999.0,  999.0,  999.0,  999.0,  999.0,    1.4,  999.0,  999.0,  999.0,  999.0,  999.0,  999.0,  999.0,  999.0,  999.0,  999.0,    0.9,  999.0,  999.0,  999.0,  999.0,  999.0,  999.0,  999.0,  999.0,  999.0,  999.0
1999/06/03 11:50,  999.0,  999.0,  999.0,  999.0,    1.4,   -0.8,   -0.7,   -0.6,    0.8,  999.0,  999.0,  999.0,  999.0,  999.0,  999.0,  999.0,  999.0,  999.0,  999.0,  999.0,  999.0,  999.0,  999.0,  999.0,  999.0,  999.0,  999.0,  999.0,  999.0,  999.0,  999.0,  999.0,  999.0,  999.0,  999.0,  999.0,  999.0,    1.8,  999.0,  999.0,  999.0,  999.0,  999.0,  999.0,  999.0,  999.0,  999.0,  999.0,  999.0,  999.0,  999.0,  999.0,  999.0,  999.0,  999.0,  999.0,  999.0,  999.0
1999/06/03 12:00,  999.0,   -1.8,  999.0,    0.2,   -0.6,   -0.2,   -0.4,   -1.1,   -0.0,    0.4,  999.0,   -1.2,  999.0,  999.0,  999.0,  999.0,  999.0,  999.0,  999.0,  999.0,  999.0,  999.0,  999.0,  999.0,  999.0,  999.0,  999.0,  999.0,  999.0,  999.0,  999.0,  999.0,  999.0,  999.0,  999.0,  999.0,  999.0,  999.0,  999.0,  999.0,  999.0,  999.0,  999.0,  999.0,  999.0,  999.0,  999.0,  999.0,  999.0,  999.0,  999.0,  999.0,  999.0,  999.0,  999.0,  999.0,  999.0,  999.0
1999/06/03 12:10,  999.0,    0.3,   -0.9,    1.2,    0.2,    0.0,   -0.3,   -1.1,   -0.1,  999.0,  999.0,  999.0,  999.0,  999.0,  999.0,  999.0,  999.0,  999.0,  999.0,  999.0,  999.0,  999.0,  999.0,  999.0,  999.0,  999.0,  999.0,  999.0,  999.0,  999.0,  999.0,  999.0,  999.0,  999.0,  999.0,  999.0,  999.0,  999.0,  999.0,  999.0,  999.0,  999.0,  999.0,  999.0,  999.0,  999.0,  999.0,  999.0,  999.0,  999.0,  999.0,  999.0,  999.0,  999.0,  999.0,  999.0,  999.0,  999.0
1999/06/03 12:20,  999.0,    1.0,    0.4,   -2.8,   -0.1,    0.0,   -0.7,   -0.4,   -0.3,    0.1,  999.0,  999.0,  999.0,  999.0,  999.0,  999.0,  999.0,  999.0,   -0.0,  999.0,  999.0,  999.0,  999.0,  999.0,  999.0,  999.0,  999.0,  999.0,  999.0,  999.0,  999.0,  999.0,  999.0,  999.0,  999.0,  999.0,  999.0,  999.0,  999.0,  999.0,  999.0,  999.0,  999.0,  999.0,  999.0,  999.0,  999.0,  999.0,  999.0,  999.0,  999.0,  999.0,  999.0,  999.0,  999.0,  999.0,  999.0,  999.0
1999/06/03 12:30,  999.0,    0.9,   -0.0,    3.4,    1.1,    0.4,    0.0,    0.2,    1.6,    0.9,    1.3,  999.0,  999.0,  999.0,  999.0,  999.0,  999.0,  999.0,  999.0,  999.0,  999.0,  999.0,  999.0,  999.0,  999.0,  999.0,  999.0,  999.0,  999.0,  999.0,  999.0,  999.0,  999.0,  999.0,  999.0,  999.0,  999.0,  999.0,  999.0,  999.0,  999.0,  999.0,  999.0,  999.0,  999.0,  999.0,  999.0,  999.0,  999.0,  999.0,  999.0,  999.0,  999.0,  999.0,  999.0,  999.0,  999.0,  999.0
1999/06/03 12:40,  999.0,   -0.1,    1.0,    1.4,    1.8,    0.9,    0.7,    1.4,    2.2,    1.6,    1.0,    1.4,  999.0,   -0.3,  999.0,  999.0,  999.0,  999.0,  999.0,  999.0,  999.0,  999.0,  999.0,  999.0,  999.0,  999.0,  999.0,  999.0,  999.0,  999.0,  999.0,  999.0,  999.0,  999.0,  999.0,  999.0,  999.0,  999.0,  999.0,  999.0,  999.0,  999.0,  999.0,  999.0,  999.0,  999.0,  999.0,  999.0,  999.0,  999.0,  999.0,  999.0,  999.0,  999.0,  999.0,  999.0,  999.0,  999.0
1999/06/03 12:50,  999.0,   -1.2,    2.3,    1.3,    0.1,   -0.1,   -0.2,    0.2,    0.6,    0.1,    0.9,    1.0,    1.4,   -0.1,  999.0,  999.0,  999.0,  999.0,  999.0,  999.0,  999.0,  999.0,  999.0,  999.0,  999.0,  999.0,  999.0,  999.0,  999.0,  999.0,  999.0,  999.0,  999.0,  999.0,  999.0,  999.0,  999.0,  999.0,  999.0,  999.0,  999.0,  999.0,  999.0,  999.0,  999.0,  999.0,  999.0,  999.0,  999.0,  999.0,  999.0,  999.0,  999.0,  999.0,  999.0,  999.0,  999.0,  999.0
1999/06/03 13:00,  999.0,   -1.3,    0.3,    0.8,   -0.1,   -0.7,   -0.7,    0.4,    0.4,    0.2,    0.1,    0.6,    0.0,    0.7,  999.0,  999.0,  999.0,  999.0,  999.0,   -0.1,  999.0,  999.0,  999.0,  999.0,  999.0,  999.0,  999.0,  999.0,  999.0,  999.0,  999.0,    0.5,  999.0,  999.0,  999.0,  999.0,  999.0,  999.0,  999.0,  999.0,  999.0,  999.0,  999.0,  999.0,    0.4,  999.0,  999.0,  999.0,  999.0,  999.0,  999.0,  999.0,  999.0,  999.0,  999.0,  999.0,  999.0,  999.0
1999/06/03 13:10,  999.0,  999.0,    0.8,    2.5,    1.9,   -0.6,   -0.6,   -1.5,    1.7,    0.2,   -0.4,   -0.8,    0.0,    0.0,    0.6,  999.0,   -1.1,  999.0,  999.0,  999.0,  999.0,  999.0,  999.0,  999.0,  999.0,  999.0,  999.0,  999.0,  999.0,  999.0,  999.0,  999.0,  999.0,  999.0,  999.0,  999.0,  999.0,  999.0,  999.0,  999.0,  999.0,  999.0,  999.0,  999.0,  999.0,  999.0,  999.0,  999.0,  999.0,  999.0,  999.0,  999.0,  999.0,  999.0,  999.0,  999.0,  999.0,  999.0
1999/06/03 13:20,  999.0,    0.6,   -2.2,    0.5,    0.8,   -2.2,   -0.6,   -0.3,   -0.9,   -1.4,   -0.5,    0.1,   -1.2,   -0.2,  999.0,  999.0,  999.0,  999.0,  999.0,  999.0,  999.0,  999.0,  999.0,  999.0,  999.0,  999.0,  999.0,  999.0,  999.0,  999.0,  999.0,  999.0,  999.0,  999.0,  999.0,  999.0,  999.0,  999.0,  999.0,  999.0,  999.0,  999.0,  999.0,  999.0,  999.0,  999.0,  999.0,  999.0,  999.0,  999.0,  999.0,  999.0,  999.0,  999.0,  999.0,  999.0,  999.0,  999.0
1999/06/03 13:30,  999.0,  999.0,  999.0,  999.0,    1.5,    0.1,    1.2,    0.4,    1.3,  999.0,    1.3,  999.0,   -0.8,   -0.0,   -0.8,  999.0,  999.0,  999.0,  999.0,  999.0,  999.0,  999.0,  999.0,  999.0,    1.7,  999.0,  999.0,  999.0,  999.0,  999.0,  999.0,  999.0,  999.0,  999.0,  999.0,  999.0,  999.0,  999.0,  999.0,  999.0,  999.0,  999.0,  999.0,  999.0,  999.0,  999.0,  999.0,  999.0,  999.0,  999.0,  999.0,  999.0,  999.0,  999.0,  999.0,  999.0,  999.0,  999.0
1999/06/03 13:40,  999.0,    0.8,  999.0,  999.0,   -2.4,    1.5,    1.1,    0.7,    1.1,    0.7,    1.6,    0.4,    0.5,   -0.1,   -0.3,  999.0,  999.0,  999.0,  999.0,  999.0,  999.0,  999.0,  999.0,  999.0,  999.0,  999.0,  999.0,  999.0,  999.0,  999.0,  999.0,  999.0,  999.0,  999.0,  999.0,  999.0,  999.0,  999.0,  999.0,  999.0,  999.0,  999.0,  999.0,  999.0,  999.0,  999.0,  999.0,  999.0,  999.0,  999.0,  999.0,  999.0,  999.0,  999.0,  999.0,  999.0,  999.0,  999.0
1999/06/03 13:50,  999.0,    0.8,  999.0,   -3.2,    1.9,    0.5,   -0.0,    0.4,    1.5,  999.0,   -0.6,   -0.0,   -0.2,   -0.9,   -0.2,  999.0,  999.0,  999.0,  999.0,  999.0,  999.0,  999.0,  999.0,  999.0,  999.0,  999.0,  999.0,  999.0,  999.0,  999.0,  999.0,  999.0,  999.0,  999.0,  999.0,  999.0,  999.0,  999.0,  999.0,  999.0,  999.0,  999.0,  999.0,  999.0,  999.0,  999.0,  999.0,  999.0,  999.0,  999.0,  999.0,  999.0,  999.0,  999.0,  999.0,  999.0,  999.0,  999.0
1999/06/03 14:00,  999.0,   -0.1,    0.3,   -4.1,    0.3,    0.7,    0.3,    0.8,    0.2,    0.5,    1.1,    1.8,    3.2,    1.5,   -0.0,  999.0,  999.0,  999.0,  999.0,  999.0,  999.0,  999.0,  999.0,  999.0,  999.0,  999.0,  999.0,  999.0,  999.0,  999.0,  999.0,  999.0,  999.0,  999.0,  999.0,  999.0,  999.0,  999.0,  999.0,  999.0,  999.0,  999.0,  999.0,  999.0,  999.0,  999.0,  999.0,  999.0,  999.0,  999.0,  999.0,  999.0,  999.0,  999.0,  999.0,  999.0,  999.0,  999.0
1999/06/03 14:10,  999.0,  999.0,    1.8,  999.0,    1.4,    1.2,    0.0,    0.0,    0.8,    0.4,    1.8,    1.2,    1.1,    0.9,    0.0,  999.0,  999.0,  999.0,  999.0,  999.0,  999.0,  999.0,  999.0,  999.0,  999.0,  999.0,  999.0,  999.0,  999.0,  999.0,  999.0,  999.0,  999.0,  999.0,  999.0,  999.0,  999.0,  999.0,  999.0,  999.0,  999.0,  999.0,  999.0,  999.0,  999.0,  999.0,  999.0,  999.0,  999.0,  999.0,  999.0,  999.0,  999.0,  999.0,  999.0,  999.0,  999.0,  999.0
1999/06/03 14:20,  999.0,  999.0,   -0.1,   -0.7,    1.4,   -0.3,   -0.0,    0.5,  999.0,  999.0,    0.9,    0.5,    0.3,   -0.5,  999.0,  999.0,  999.0,  999.0,  999.0,  999.0,  999.0,  999.0,  999.0,  999.0,  999.0,  999.0,  999.0,  999.0,  999.0,  999.0,  999.0,  999.0,  999.0,  999.0,  999.0,  999.0,  999.0,  999.0,  999.0,  999.0,  999.0,  999.0,  999.0,  999.0,  999.0,  999.0,  999.0,  999.0,  999.0,  999.0,  999.0,  999.0,  999.0,  999.0,  999.0,  999.0,  999.0,  999.0
1999/06/03 14:30,  999.0,    0.6,   -0.6,   -0.9,    0.4,    1.9,    1.2,    1.0,    1.0,    0.8,    0.3,    0.1,    0.2,    0.6,  999.0,  999.0,  999.0,  999.0,  999.0,  999.0,  999.0,  999.0,  999.0,    0.1,  999.0,  999.0,  999.0,  999.0,  999.0,  999.0,  999.0,  999.0,  999.0,  999.0,  999.0,  999.0,  999.0,  999.0,  999.0,  999.0,  999.0,  999.0,  999.0,  999.0,  999.0,  999.0,  999.0,  999.0,  999.0,  999.0,  999.0,  999.0,  999.0,  999.0,  999.0,  999.0,  999.0,  999.0
1999/06/03 14:40,  999.0,   -1.3,    0.6,    0.7,    0.6,    0.7,  999.0,    1.3,    1.7,    0.8,    0.4,    0.1,    0.4,   -0.8,  999.0,  999.0,  999.0,  999.0,  999.0,  999.0,  999.0,   -1.0,  999.0,  999.0,  999.0,  999.0,  999.0,  999.0,  999.0,  999.0,  999.0,  999.0,  999.0,  999.0,  999.0,  999.0,  999.0,  999.0,  999.0,  999.0,  999.0,  999.0,  999.0,  999.0,  999.0,  999.0,  999.0,  999.0,  999.0,  999.0,  999.0,  999.0,  999.0,  999.0,  999.0,  999.0,  999.0,  999.0
1999/06/03 14:50,  999.0,    0.4,  999.0,    0.5,    0.7,    1.0,    0.9,   -0.3,    1.8,    1.3,    0.6,    0.6,    0.0,   -0.5,  999.0,  999.0,   -1.0,  999.0,  999.0,  999.0,  999.0,  999.0,  999.0,  999.0,  999.0,  999.0,  999.0,  999.0,  999.0,  999.0,  999.0,  999.0,  999.0,  999.0,  999.0,  999.0,  999.0,  999.0,  999.0,  999.0,  999.0,  999.0,  999.0,  999.0,  999.0,  999.0,  999.0,  999.0,  999.0,  999.0,  999.0,  999.0,  999.0,  999.0,  999.0,  999.0,  999.0,  999.0
1999/06/03 15:00,  999.0,    0.2,    1.1,   -1.2,    0.2,    0.8,  999.0,   -0.6,    2.5,   -0.2,    0.7,   -0.1,   -0.8,  999.0,  999.0,  999.0,  999.0,  999.0,  999.0,  999.0,  999.0,  999.0,  999.0,  999.0,  999.0,  999.0,  999.0,  999.0,  999.0,  999.0,  999.0,  999.0,  999.0,  999.0,  999.0,  999.0,  999.0,  999.0,  999.0,  999.0,  999.0,  999.0,  999.0,  999.0,  999.0,  999.0,  999.0,  999.0,  999.0,  999.0,  999.0,  999.0,  999.0,  999.0,  999.0,  999.0,  999.0,  999.0
1999/06/03 15:10,  999.0,    1.3,    1.8,    0.6,    0.9,    1.1,    0.8,    1.2,    0.6,    2.2,    1.3,    1.4,    0.4,   -1.1,  999.0,  999.0,  999.0,    0.3,  999.0,  999.0,  999.0,  999.0,  999.0,  999.0,  999.0,  999.0,  999.0,  999.0,  999.0,  999.0,  999.0,  999.0,  999.0,  999.0,  999.0,  999.0,  999.0,  999.0,  999.0,  999.0,  999.0,  999.0,  999.0,  999.0,  999.0,  999.0,  999.0,  999.0,  999.0,  999.0,  999.0,  999.0,  999.0,  999.0,  999.0,  999.0,  999.0,  999.0
1999/06/03 15:20,  999.0,    1.2,    1.0,  999.0,    1.3,  999.0,  999.0,    0.1,   -0.1,    0.7,    1.5,    0.0,   -0.1,   -1.1,   -1.2,   -0.2,  999.0,  999.0,  999.0,  999.0,  999.0,  999.0,  999.0,  999.0,  999.0,  999.0,  999.0,  999.0,  999.0,  999.0,  999.0,  999.0,  999.0,  999.0,  999.0,  999.0,  999.0,  999.0,  999.0,  999.0,  999.0,  999.0,  999.0,  999.0,  999.0,  999.0,  999.0,  999.0,  999.0,  999.0,  999.0,  999.0,  999.0,  999.0,  999.0,  999.0,  999.0,  999.0
1999/06/03 15:30,  999.0,   -0.0,    1.3,    1.4,    1.2,    0.4,   -0.8,    1.1,    0.6,    0.9,  999.0,    0.3,    0.4,   -0.5,   -0.3,  999.0,  999.0,  999.0,  999.0,   -0.4,  999.0,  999.0,  999.0,  999.0,  999.0,  999.0,  999.0,  999.0,  999.0,  999.0,  999.0,  999.0,  999.0,  999.0,  999.0,  999.0,  999.0,  999.0,  999.0,  999.0,  999.0,  999.0,  999.0,  999.0,  999.0,  999.0,  999.0,  999.0,  999.0,  999.0,  999.0,  999.0,  999.0,  999.0,  999.0,  999.0,  999.0,  999.0
1999/06/03 15:40,  999.0,    1.2,    0.6,    0.4,    0.8,    0.9,    1.1,    0.7,    1.3,    1.6,  999.0,  999.0,    1.1,    0.2,   -0.8,   -0.6,  999.0,  999.0,  999.0,  999.0,  999.0,  999.0,  999.0,  999.0,  999.0,  999.0,  999.0,  999.0,  999.0,  999.0,  999.0,  999.0,  999.0,  999.0,  999.0,  999.0,  999.0,  999.0,  999.0,  999.0,  999.0,  999.0,  999.0,  999.0,  999.0,  999.0,  999.0,  999.0,  999.0,  999.0,  999.0,  999.0,  999.0,  999.0,  999.0,  999.0,  999.0,  999.0
1999/06/03 15:50,  999.0,    0.4,    1.0,    0.8,    0.1,    0.8,    1.3,    1.9,    0.4,    0.5,  999.0,   -0.1,    0.7,   -0.7,   -2.1,   -3.1,   -4.3,   -3.8,   -2.8,   -3.8,    0.4,   -1.5,  999.0,  999.0,  999.0,  999.0,  999.0,  999.0,  999.0,  999.0,  999.0,  999.0,  999.0,  999.0,  999.0,  999.0,  999.0,  999.0,  999.0,  999.0,  999.0,  999.0,  999.0,  999.0,  999.0,  999.0,  999.0,  999.0,  999.0,  999.0,  999.0,  999.0,  999.0,  999.0,  999.0,  999.0,  999.0,  999.0
1999/06/03 16:00,  999.0,    0.3,    0.3,    1.7,   -0.3,   -0.6,    0.5,    0.6,    0.9,  999.0,   -0.1,    0.4,    1.7,    1.2,   -2.3,   -3.1,   -2.1,   -1.9,   -1.5,   -2.3,   -3.2,  999.0,   -4.7,   -0.8,  999.0,  999.0,  999.0,  999.0,  999.0,  999.0,  999.0,  999.0,  999.0,  999.0,  999.0,  999.0,  999.0,  999.0,  999.0,  999.0,  999.0,  999.0,  999.0,  999.0,  999.0,  999.0,  999.0,  999.0,  999.0,  999.0,  999.0,  999.0,  999.0,  999.0,  999.0,  999.0,  999.0,  999.0
1999/06/03 16:10,  999.0,    0.3,    0.0,    0.1,   -2.3,   -0.6,   -1.7,   -3.9,   -6.7,  -11.3,  -15.6,  -12.0,  -11.4,  -12.2,  -11.9,  999.0,  999.0,   -9.8,  -16.5,  -11.2,  -10.3,  -12.5,  999.0,  999.0,  -16.6,  -13.4,  999.0,  999.0,  999.0,  999.0,  999.0,  999.0,  999.0,  999.0,  999.0,  999.0,  999.0,  999.0,  999.0,  999.0,  999.0,  999.0,  999.0,  999.0,  999.0,  999.0,  999.0,  999.0,  999.0,  999.0,  999.0,  999.0,  999.0,  999.0,  999.0,  999.0,  999.0,  999.0
1999/06/03 16:20,  999.0,   -1.9,   -2.7,   -3.4,   -7.8,  999.0,   -7.8,   -9.6,   -9.5,   -9.7,   -9.7,   -9.4,  -10.6,    0.3,   -0.5,    2.9,  999.0,   -5.4,   -5.3,   -6.4,  999.0,   -7.4,  999.0,  999.0,  -15.1,  -15.7,  -14.7,  -20.9,  999.0,  999.0,  999.0,  -19.5,  999.0,  -18.4,  -19.6,  -18.9,  -18.2,  -17.7,  -16.0,  -13.8,  -11.7,   -9.9,   -7.8,   -7.3,   -6.0,   -4.4,   -4.8,   -5.5,  999.0,  999.0,  999.0,  999.0,  999.0,  999.0,  999.0,  999.0,  999.0,  999.0
1999/06/03 16:30,  999.0,   -1.7,    0.5,    0.6,    3.0,    3.2,    4.8,  999.0,    3.7,    2.2,    1.0,   10.4,    0.5,    2.0,    1.5,   -0.1,    0.9,    1.1,    0.0,   -1.1,   -1.3,   -2.5,   -2.3,   -2.9,   -3.5,   -5.4,   -7.8,   -7.8,   -8.1,   -7.4,   -6.7,   -6.3,   -5.0,   -4.5,   -4.1,   -3.0,   -2.2,   -2.2,   -2.9,   -2.8,   -2.6,   -3.8,   -5.3,    5.9,   -5.6,    9.2,    1.0,  999.0,  999.0,   -2.5,   12.2,   13.3,   13.4,    7.6,  999.0,  999.0,  999.0,  999.0
1999/06/03 16:40,  999.0,  999.0,   -1.3,    0.0,    0.6,    1.9,    3.4,    3.9,    3.9,    3.1,    2.6,    3.8,    4.9,    4.4,    2.9,    0.7,   -1.2,   -1.7,   -1.5,   -2.1,   -2.1,   -2.6,   -3.9,  999.0,   -4.4,   -4.8,   -4.5,   -4.8,   -4.8,   -4.8,   -5.7,   -6.4,   -6.4,   -5.8,   -2.6,   -0.7,    0.8,    1.0,    0.2,   -0.1,    0.3,    0.1,   -0.5,    2.5,    1.9,    1.9,    2.0,    1.9,  999.0,  999.0,  999.0,  999.0,    0.7,    1.1,    5.0,    2.7,    1.8,    3.8
1999/06/03 16:50,  999.0,   -2.2,   -1.4,    0.1,    0.5,    1.0,    2.8,    4.2,    4.0,    2.3,    1.9,    1.7,    0.2,   -1.0,   -1.8,   -3.4,   -4.9,   -4.1,   -4.0,   -3.6,   -2.4,   -3.2,   -3.6,   -3.3,   -3.8,   -3.8,   -2.3,   -2.4,   -2.2,   -2.4,   -2.9,   -3.1,   -3.7,   -2.6,   -2.0,   -2.2,   -1.0,   -0.9,    0.8,    0.6,    0.6,    1.9,    1.7,    1.9,  999.0,  999.0,  999.0,  999.0,  999.0,  999.0,  999.0,  999.0,  999.0,  999.0,  999.0,  999.0,  999.0,  999.0
1999/06/03 17:00,  999.0,    2.0,   -0.3,   -1.5,    0.3,    0.9,    1.3,    1.7,    0.8,    0.6,    3.8,    7.7,   -1.5,  -10.4,  999.0,  999.0,   -4.9,   -3.8,   -4.7,    1.1,    2.0,    2.6,  999.0,  999.0,  999.0,  999.0,  999.0,  999.0,  999.0,  999.0,  999.0,  999.0,  999.0,  999.0,  999.0,  999.0,  999.0,  999.0,  999.0,  999.0,  999.0,  999.0,  999.0,   -8.4,   -4.9,   -3.0,   -2.2,   -2.3,   -3.2,   -2.9,   -4.6,   -5.1,   -4.8,   -3.6,   -4.0,   -5.5,   -3.3,   -4.1
1999/06/03 17:10,  999.0,   -4.1,   -2.7,   -1.8,   -5.5,   -8.3,   -9.0,   -3.5,   -3.4,   -3.0,    0.7,   -0.5,   -5.0,   -5.9,   -4.8,   -6.2,   -1.1,    0.1,   -0.9,   -1.5,   -1.7,   -2.6,   -3.1,   -3.0,   -2.3,   -1.7,  -12.3,  -11.7,  -10.5,   -1.8,   -9.4,   -9.7,  -10.5,  -10.1,   -4.6,   -5.4,  -10.8,   -9.8,   -5.6,   -5.7,   -9.9,   -9.9,   -7.9,   -0.7,    0.5,   -0.4,   -1.4,   -1.8,   -2.1,   -2.7,   -3.3,   -3.4,   -5.9,   -4.4,   -5.1,   -4.2,   -3.7,   -4.0
1999/06/03 17:20,  999.0,   -1.6,    0.1,   -2.5,   -2.0,   -1.9,   -2.7,   -2.1,   -0.6,    0.7,    0.0,   -0.4,   -0.4,   -1.5,   -2.0,   -2.1,   -2.2,   -2.1,   -1.8,   -2.0,   -2.4,   -3.1,   -4.4,   -4.0,   -4.4,   -4.0,   -2.5,   -1.8,   -2.3,   -2.0,   -2.0,   -3.5,   -3.4,   -4.0,   -3.6,   -5.5,   -7.0,   -7.4,   -5.7,   -5.7,   -4.4,   -7.3,   -7.8,    0.7,    1.4,    1.3,    0.8,    0.1,   -0.6,   -2.1,   -1.4,  999.0,  999.0,  999.0,  999.0,  999.0,  999.0,  999.0
1999/06/03 17:30,  999.0,   -0.0,   -0.3,   -0.1,   -0.2,   -0.3,   -3.2,   -3.4,    1.3,    1.6,    2.0,    2.4,    1.4,    2.2,    1.0,    0.2,   -1.1,   -3.0,   -4.5,   -2.9,   -5.4,   -3.9,   -3.1,   -2.0,   -0.4,   -0.8,   -1.4,  999.0,  999.0,  999.0,  999.0,  999.0,  999.0,  999.0,  999.0,  999.0,  999.0,  999.0,   -0.5,  999.0,  999.0,  999.0,  999.0,  999.0,  999.0,  999.0,  999.0,  999.0,  999.0,  999.0,  999.0,  999.0,  999.0,  999.0,  999.0,  999.0,  999.0,  999.0
1999/06/03 17:40,  999.0,  999.0,  999.0,   -3.0,   -2.7,   -4.0,  999.0,  999.0,  999.0,   -2.0,   -1.1,   -1.9,   -1.9,  -11.2,  999.0,  999.0,  999.0,  999.0,  999.0,  999.0,  999.0,  999.0,  999.0,  999.0,  999.0,  999.0,  999.0,  999.0,  999.0,  999.0,  999.0,  999.0,  999.0,  999.0,  999.0,  999.0,  999.0,  999.0,  999.0,  999.0,  999.0,  999.0,  999.0,  999.0,  999.0,  999.0,  999.0,  999.0,  999.0,  999.0,  999.0,  999.0,  999.0,  999.0,  999.0,  999.0,  999.0,  999.0
1999/06/03 17:50,  999.0,  999.0,  999.0,   -1.8,   -1.3,   -1.8,  -25.9,  -41.0,  -27.8,  -16.8,  -18.7,  -11.5,  -17.8,  -16.5,  -27.9,  -42.2,  -39.3,  -34.0,  -36.3,  -34.4,  -23.9,  -20.9,  -17.5,  -14.4,  -10.8,   -7.6,   -4.3,   -1.3,   20.8,   -0.5,   41.9,   20.7,   20.6,   20.3,   20.5,   20.6,   -0.4,   20.6,   20.5,   20.9,   20.7,   20.6,   20.7,   21.0,   20.6,   20.2,   20.2,   20.4,   20.9,   20.6,   20.5,   -1.0,   20.7,   20.6,   -0.4,   -0.9,   41.6,   20.7
1999/06/03 18:00,  999.0,  999.0,  -39.1,  999.0,  999.0,  999.0,  -35.2,  -39.6,  -38.5,  -37.6,  -34.8,  -22.5,  -19.7,  -37.7,  -31.3,  -29.2,  -33.5,  -30.6,  -24.5,  -22.5,  999.0,  999.0,  999.0,   30.8,   32.7,  -41.5,   -1.7,   39.6,   13.6,   20.1,   11.5,  -21.1,   -0.0,    2.4,   25.9,   16.8,   -6.8,   16.9,   31.1,   41.7,   32.3,   21.1,   30.8,   37.2,  -16.9,   27.5,   24.2,  -20.2,    0.4,   13.1,   20.1,   41.8,    1.6,   32.1,  -10.1,   31.1,   36.9,   10.5
1999/06/03 18:10,  999.0,  999.0,  999.0,  999.0,  -21.5,  -21.5,  -20.9,  999.0,   -0.0,  -21.0,  -10.6,   -9.0,  -17.9,  -20.6,  -15.0,  -14.6,  -13.0,  -15.1,  -16.7,  -13.9,  -17.8,  -24.7,  -16.3,   -7.1,  -22.0,   -3.2,   -3.2,   10.0,   -1.8,    9.9,   -0.7,   20.9,   42.2,   20.9,   10.1,    2.8,    6.7,    6.6,    1.8,   20.6,   -0.6,   41.7,  -16.2,   -0.2,  -21.3,   20.0,    6.7,  999.0,   -0.4,   41.9,   -9.0,   -2.5,  -10.5,   -7.4,   -3.1,  -21.1,  -15.9,  -10.9
1999/06/03 18:20,  999.0,  999.0,    0.9,   -1.0,   -8.4,   -9.1,   -8.9,  -14.7,   -9.5,   -8.0,  -11.3,   -8.6,   -8.0,  -11.1,  -10.8,   -9.8,   -9.1,   -1.0,   -7.4,   -6.7,   -5.7,   -5.9,   -4.9,   -0.3,   -3.1,   -0.9,   -1.6,   -0.7,   -1.1,   -1.2,   -0.2,   -1.2,  999.0,   -0.8,   -1.0,   -0.5,   -0.9,  999.0,   -1.0,   -0.5,   -0.5,   -0.4,   -0.5,   -0.6,   -0.8,   -0.5,   -0.4,   -0.6,   -0.7,   -1.2,   -0.6,   -0.6,   -0.8,   -0.8,   -0.5,   -0.8,   -1.0,   -0.6
1999/06/03 18:30,  999.0,    0.8,    0.8,   -1.2,   -2.3,   -1.2,   -0.3,    1.3,    2.1,  999.0,   -5.5,  999.0,  999.0,   -3.7,  999.0,  999.0,  999.0,    4.8,  999.0,  999.0,   -0.9,   -1.0,   -1.3,   -0.8,   -0.9,   -0.5,   -0.2,   -0.0,    0.4,   -0.1,   -0.8,   -1.0,   -1.2,   -0.4,   -0.9,   -0.3,    0.5,   -0.5,   -0.4,   -0.7,   -0.8,   -0.9,   -1.2,   -0.9,   -2.0,   -0.8,   -0.7,   -0.4,   -0.5,   -0.6,   -0.5,   -0.5,   -0.7,   -0.8,   -0.5,   -0.7,   -1.1,   13.6
1999/06/03 18:40,  999.0,  999.0,  999.0,   -2.3,   -2.2,   -1.7,  999.0,    1.6,  999.0,  999.0,   -5.4,   -2.9,   -6.7,   -8.5,   21.4,  -21.4,  999.0,  999.0,   25.7,  999.0,  999.0,   -0.8,   16.6,  999.0,   -0.7,    0.4,   -0.3,   -1.0,  999.0,   20.6,  999.0,   41.6,   -0.9,   -0.9,   20.6,   41.6,   -1.2,   20.5,   41.6,   42.4,   27.4,   20.7,   42.0,   27.7,   28.0,   20.7,   20.6,   42.0,   21.2,   27.9,   -0.7,   20.7,   21.1,   27.5,   27.3,   27.5,   27.9,   20.7
1999/06/03 18:50,   -3.9,  999.0,   -5.4,  999.0,  999.0,  999.0,  999.0,  999.0,  999.0,  -20.9,  999.0,  -21.4,  -21.0,  -21.6,  999.0,  -21.2,  999.0,  999.0,  999.0,  999.0,  999.0,  999.0,  999.0,  999.0,  999.0,  999.0,  999.0,  999.0,  999.0,  999.0,  999.0,  999.0,  999.0,  999.0,  999.0,  999.0,  999.0,  999.0,   41.8,   41.2,  999.0,   41.5,   41.8,   41.5,   41.0,   41.9,   41.7,   41.7,   41.5,   41.8,   41.8,   41.8,   41.9,   41.8,   41.8,   41.7,   41.3,   41.4
1999/06/03 19:00,  999.0,  999.0,  999.0,  999.0,  999.0,  -10.2,   -0.5,   -0.8,  999.0,   -5.6,  -21.6,   -0.2,  999.0,  999.0,  999.0,   -0.2,  -21.1,  -20.5,  999.0,  999.0,  999.0,  -17.3,    9.8,  -13.7,  -12.3,  999.0,  999.0,  999.0,   -3.2,  999.0,  999.0,  999.0,  999.0,  999.0,  999.0,   22.3,  999.0,  999.0,  999.0,  999.0,  999.0,  999.0,  999.0,  999.0,   42.0,   41.7,  999.0,  999.0,  999.0,   41.3,  999.0,  999.0,  999.0,   -1.0,   -1.3,  999.0,  999.0,  999.0
1999/06/03 19:10,  999.0,  999.0,  999.0,  999.0,   -3.6,  999.0,   -4.4,   -2.8,   -1.9,   -0.9,   -0.8,  999.0,  999.0,  999.0,  999.0,    2.3,  999.0,    3.3,    3.1,  999.0,  999.0,  999.0,  999.0,  999.0,  999.0,  999.0,  999.0,  999.0,  999.0,   41.5,   42.2,   41.7,   40.4,   42.1,   41.6,   42.3,   42.1,   41.9,   41.2,   41.6,   41.3,   41.3,   41.6,   42.4,   41.8,   41.1,  999.0,   41.4,   41.9,  999.0,   41.7,   42.3,   42.3,   42.3,   41.5,   41.9,   42.3,   42.5
1999/06/03 19:20,  999.0,  999.0,  999.0,  999.0,   -7.1,   -2.4,   -3.5,   -2.1,   -1.3,   -0.4,    0.2,  999.0,   -0.4,  999.0,  999.0,  999.0,  999.0,  999.0,  999.0,  999.0,  999.0,  999.0,  999.0,  999.0,  999.0,  999.0,  999.0,   37.8,  999.0,   42.0,   41.3,   40.3,  999.0,   41.4,  999.0,   42.0,   41.3,   41.3,   41.5,  999.0,   40.8,   41.5,   41.6,   41.5,   41.2,   41.9,  999.0,   41.7,   41.8,   41.6,   41.9,  999.0,   42.3,   42.7,   41.7,   40.7,   41.4,   41.7
1999/06/03 19:30,  999.0,  999.0,  999.0,  999.0,   -3.7,   -3.5,   -2.5,   -2.0,   -0.1,   -0.5,   -0.3,  999.0,  999.0,  999.0,  999.0,  999.0,  999.0,    5.6,  999.0,  999.0,  999.0,  999.0,  999.0,  999.0,  999.0,  999.0,  999.0,  999.0,  999.0,  999.0,   42.3,  999.0,  999.0,  999.0,  999.0,  999.0,  999.0,  999.0,  999.0,  999.0,  999.0,  999.0,  999.0,  999.0,  999.0,  999.0,  999.0,  999.0,  999.0,  999.0,  999.0,  999.0,  999.0,  999.0,  999.0,  999.0,  999.0,  999.0
1999/06/03 19:40,  999.0,  999.0,  999.0,  999.0,   -1.8,  999.0,  999.0,   -1.2,  999.0,  999.0,   -0.3,  999.0,  999.0,  999.0,  999.0,  999.0,  999.0,  999.0,  999.0,  999.0,  999.0,  999.0,  999.0,  999.0,  999.0,  999.0,  999.0,  999.0,  999.0,  999.0,  999.0,  999.0,  999.0,  999.0,  999.0,  999.0,  999.0,  999.0,  999.0,  999.0,  999.0,  999.0,  999.0,  999.0,  999.0,  999.0,  999.0,  999.0,  999.0,  999.0,  999.0,  999.0,  999.0,  999.0,  999.0,  999.0,  999.0,  999.0
1999/06/03 19:50,  999.0,  999.0,  999.0,  999.0,  -13.5,   -6.9,  999.0,  999.0,   -0.1,   -3.6,   -5.3,  999.0,  999.0,  999.0,  999.0,  999.0,   -1.3,   -4.3,  999.0,  999.0,  999.0,  999.0,  999.0,  999.0,  999.0,  999.0,  999.0,  999.0,   15.5,   -9.6,   14.2,  -13.9,  999.0,  999.0,  999.0,  999.0,  999.0,  999.0,  999.0,  999.0,  999.0,  999.0,  -12.6,  999.0,  -20.4,  999.0,  999.0,  999.0,  999.0,  -38.2,  -42.3,  -39.5,  -41.3,  -41.9,  -41.3,  999.0,  -42.1,  -41.4
1999/06/03 20:00,  999.0,  999.0,   -4.9,   -3.8,   -2.8,   -2.5,  999.0,   -1.1,   -0.7,  -20.5,   -9.0,  999.0,  -21.1,  999.0,  999.0,  999.0,   -3.4,   -3.7,   -2.8,  999.0,  999.0,   -7.8,  999.0,  999.0,  999.0,  999.0,  999.0,  999.0,   33.2,   34.4,   35.5,   15.4,  999.0,   -3.4,   -3.4,   19.3,    0.5,   -3.4,  -17.4,  -13.3,  999.0,  -41.8,  -30.8,  999.0,   18.3,  -42.1,  -41.7,  999.0,  -10.8,  -42.0,  -31.7,  -33.3,    0.7,  -41.8,  -34.7,  -34.8,  -41.9,  -41.6
1999/06/03 20:10,  999.0,  999.0,   -3.8,   -2.3,  999.0,  999.0,  999.0,  999.0,    0.2,   -0.6,  999.0,  999.0,  999.0,   -8.1,  999.0,   -2.8,   -3.7,   -4.9,   -6.0,   -7.9,  999.0,  999.0,  999.0,  999.0,  999.0,  999.0,  999.0,  999.0,  -30.6,  999.0,  -32.9,  -33.7,  -34.7,  -35.7,  -36.7,  -37.3,  -37.3,  -38.8,  -39.1,  -40.5,  -41.3,  -41.6,  -42.3,  -41.7,  -42.1,  -41.6,  -42.3,  -41.8,  -41.7,  -41.7,  -42.1,  -42.0,  -41.5,  -41.7,  -41.7,  -41.9,  -41.2,  -42.8
1999/06/03 20:20,  999.0,   -5.0,  999.0,  999.0,   -3.6,   -3.0,   -2.4,  999.0,  999.0,  999.0,  -21.0,    0.7,  -21.7,  -10.3,  999.0,  -12.7,  -12.5,  -13.3,  999.0,  999.0,  999.0,  999.0,  999.0,  999.0,  999.0,  999.0,  -29.9,  999.0,  -31.9,  -32.4,  -33.6,  -26.0,  -36.0,  -37.1,  -37.9,  999.0,  999.0,  -41.1,  -42.4,  -41.2,  -41.0,  -42.2,  -41.7,  -42.2,  -41.3,  -40.6,  999.0,  -41.6,  -42.0,  -41.7,  -41.4,  999.0,  -41.7,  -42.0,  999.0,  -42.1,  -42.0,  -42.4
1999/06/03 20:30,  999.0,  999.0,   -3.7,    2.8,   -0.4,  999.0,  999.0,  999.0,  999.0,   -2.3,  999.0,  999.0,  999.0,  999.0,  -13.2,  999.0,   -2.0,   -1.8,  999.0,  999.0,   -2.6,  -25.4,  -18.7,  -18.5,  -21.9,  -29.7,  -18.1,  -22.0,  999.0,  -17.7,  -18.0,  -34.8,  -24.1,  -36.5,  -28.2,  -30.4,  -41.1,  -40.0,  -41.5,  -41.8,  -38.5,  -41.6,  -42.0,  -41.8,  -41.8,  -41.7,  -41.8,  -41.5,  999.0,  -41.6,  -41.5,  -42.1,  -41.7,  999.0,  -42.4,  -31.5,  -41.7,  -20.3
1999/06/03 20:40,  999.0,  999.0,  999.0,   -5.4,  999.0,  999.0,  999.0,  999.0,  999.0,  999.0,  999.0,   -7.5,  999.0,  999.0,  999.0,  999.0,  -21.6,  -21.3,  -21.4,  -19.5,  -22.1,  -24.0,  -26.5,  -26.0,  -25.6,  -28.4,  -30.1,  -31.1,  -32.2,  -33.3,  999.0,  -35.8,  -36.7,  -39.1,  -39.3,  -41.6,  -41.1,  -42.0,  -41.7,  -41.6,  -41.6,  -41.8,  -41.1,  -41.3,  -41.6,  -41.7,  -41.9,  -41.5,  -41.5,  -41.6,  -41.4,  -41.8,  -41.4,  -42.2,  -41.5,  -41.6,  -42.1,  -41.3
1999/06/03 20:50,  999.0,  999.0,   -5.1,    0.1,   -4.6,   -1.8,   -2.1,    0.1,    0.3,  999.0,    2.6,  -21.4,  -22.0,  999.0,   -0.1,  999.0,  -21.1,  -23.0,  999.0,   13.1,   10.6,   21.7,   21.7,  999.0,  -30.7,  999.0,  -33.2,  999.0,  999.0,  999.0,  -36.9,  -12.4,  -13.7,  -40.7,  -41.7,  -16.2,  -41.8,    1.9,  -10.9,  -20.8,  -12.3,  -12.5,  -19.6,    1.6,  999.0,  -20.7,  -41.8,  -27.1,  -41.5,  -20.0,  -27.7,  -20.3,  -42.3,    1.2,    1.6,  -20.7,  -27.6,  -20.8
1999/06/03 21:00,  999.0,    1.2,   -4.8,   -3.4,   -3.0,   -1.4,   -0.6,   -0.2,    1.1,    2.1,    3.0,    4.5,  999.0,  999.0,  999.0,  999.0,  999.0,  999.0,  999.0,   41.0,  999.0,  999.0,  999.0,  999.0,  999.0,  999.0,  999.0,  999.0,   26.0,   13.4,   35.9,   34.0,   22.4,   11.3,   20.8,   10.3,   19.1,   14.8,    8.3,    7.6,   23.7,   14.3,   22.1,   12.6,  999.0,  999.0,  999.0,  999.0,  999.0,  999.0,  999.0,  999.0,  999.0,  999.0,  999.0,  999.0,  -41.9,  999.0
1999/06/03 21:10,  999.0,   -1.5,   -1.0,   -3.6,   -0.4,   -0.7,   -0.0,    1.4,    2.5,    1.4,  999.0,    7.0,  999.0,  999.0,  999.0,  999.0,  999.0,  999.0,  999.0,   15.6,  999.0,  999.0,   16.6,   15.1,   15.3,  999.0,  999.0,   12.7,   12.3,   10.5,   10.3,    9.1,    8.0,    5.0,    6.2,    4.9,    4.2,  999.0,    3.5,    2.4,    2.2,    1.8,  999.0,    0.6,    0.3,    0.9,  999.0,    0.7,  999.0,    0.8,    0.8,  999.0,  999.0,  -20.5,  -42.1,    0.6,    0.2,  -20.3
1999/06/03 21:20,  999.0,  999.0,  999.0,   -3.0,   -1.6,   -0.0,    1.2,    2.3,    1.6,    3.3,  999.0,  999.0,  999.0,  999.0,  999.0,  999.0,  999.0,  999.0,   21.0,  999.0,   18.5,   16.4,   16.0,   14.1,   13.1,  999.0,   10.9,    9.6,    8.9,    6.4,    6.1,    4.9,    3.6,    1.9,    2.1,    0.2,    0.4,    0.5,    0.7,    0.9,    1.1,    0.6,   -0.4,  999.0,    0.8,    0.6,    0.7,  -10.5,  999.0,  999.0,    0.8,  999.0,    1.0,    0.1,    0.9,  999.0,    0.5,    1.0
1999/06/03 21:30,  999.0,   -0.0,   -1.1,   -3.9,   -1.6,   -0.2,    1.3,    1.7,    5.0,  999.0,  999.0,  999.0,  999.0,  999.0,  999.0,  999.0,  999.0,  999.0,   20.4,   19.7,   17.0,   16.8,   15.1,   13.6,    6.9,  999.0,   11.0,    9.7,  999.0,    7.7,    6.3,    5.5,    2.3,    1.4,    0.6,    2.6,    0.6,    1.0,    4.2,    0.5,    0.6,  999.0,    0.8,    0.5,    0.7,   -0.4,   -0.6,    0.6,    0.8,    1.5,    0.8,    0.4,    0.9,    0.3,    0.7,    0.7,    0.6,    0.9
1999/06/03 21:40,  999.0,  999.0,   -3.3,   -3.6,   -1.1,   -0.0,    1.5,    2.7,    1.9,    2.0,    3.2,  999.0,  999.0,  999.0,  999.0,  999.0,  999.0,  999.0,   18.2,   16.9,   16.4,   14.6,   13.3,   12.5,   10.9,    9.4,    8.1,    7.4,    6.0,    5.4,    4.1,    2.6,    1.4,    1.2,    0.6,    0.2,    0.8,    0.4,    0.7,    0.4,    0.6,    0.6,  999.0,    0.9,    0.8,    0.7,    0.6,    0.7,    0.7,    0.9,    1.0,    0.5,    0.1,   -0.2,    0.6,    0.9,    0.6,  999.0
1999/06/03 21:50,  999.0,   -2.8,   -2.8,   -0.0,   -3.9,   -0.1,    1.1,    1.7,  999.0,  999.0,   -0.6,  999.0,    0.0,   21.4,  -21.3,  -21.0,  999.0,  -22.3,   -2.5,  999.0,  999.0,   -6.1,  999.0,   13.2,  999.0,   10.9,  999.0,  999.0,  -11.6,  -35.8,  -33.3,  -37.5,  -36.9,  -40.2,    0.4,  -37.8,  -20.6,  -40.6,    1.0,  999.0,  -41.2,    0.1,    0.6,  -41.5,  -20.7,  -30.9,  -41.6,  -42.8,  -42.1,    0.6,  999.0,    1.2,  -41.5,  -20.4,  -42.6,  -20.0,    0.9,  -41.3
1999/06/03 22:00,  999.0,   -1.3,   -0.1,   -1.8,   -0.7,    0.3,    1.3,  999.0,  999.0,  999.0,  999.0,  999.0,  999.0,  999.0,  999.0,  999.0,  999.0,  999.0,  999.0,  999.0,  999.0,  -27.5,  -29.0,  999.0,  999.0,  999.0,  999.0,  -35.1,  999.0,  -37.4,  -38.0,  -39.4,  -41.8,  -41.7,  -41.4,  -41.8,  -41.9,  -41.6,  -41.8,  -42.2,  -42.1,  -41.6,  -41.9,  -42.5,  -41.8,  -41.8,  -41.8,  -41.7,  -42.0,  -41.7,  -41.4,  -41.8,  -42.9,  -35.5,  999.0,  -42.2,  -41.6,  -41.6
1999/06/03 22:10,  999.0,   -1.5,   -2.7,   -2.3,   -1.4,    0.0,    0.6,   -0.1,  999.0,  999.0,    1.6,  999.0,  999.0,  -10.8,   21.1,   21.7,  999.0,  999.0,   18.1,   -4.2,   -5.6,   15.2,  -19.1,  -31.2,  -32.9,  999.0,  -35.8,  -37.7,  -38.1,  -40.8,  999.0,  -41.6,  -41.8,  -41.1,  -42.3,  -41.5,  -41.7,  -41.5,  -41.5,  -42.1,  -41.4,  -41.2,  -40.9,  -41.9,  -41.7,  -42.1,  999.0,  -42.0,  -41.8,  -41.6,  -41.7,  999.0,  -41.9,  -41.4,  -41.6,  -42.0,  -41.6,  -41.8
1999/06/03 22:20,  999.0,   -2.3,   -3.2,   -3.6,   -3.9,   -0.8,  -10.3,  -21.1,  -21.4,  -21.9,  -21.4,  -27.5,  -21.4,  -36.0,  -37.1,  -39.3,  -18.7,  -31.2,  999.0,  -21.5,  -20.5,  -41.2,  -37.2,  -35.6,  -40.8,  -41.4,  -41.2,  -41.6,  -41.0,  999.0,    1.5,  -17.4,    0.8,  -42.2,  -28.0,  -41.7,  -41.7,  -31.1,  -20.7,  -20.7,  -41.8,  -34.6,  -42.1,  999.0,  -42.0,  -42.1,  999.0,  -41.6,  -41.4,  -41.5,  -41.5,  -41.7,  -41.6,  -41.5,  -41.8,  -41.3,  -41.7,  -41.8
1999/06/03 22:30,  999.0,   -1.4,   -5.1,   -4.5,   -1.4,   -0.4,  999.0,  999.0,  -21.3,  999.0,  999.0,  -14.2,  999.0,  999.0,  -22.2,  999.0,  999.0,  -41.3,   -7.5,  -32.1,  999.0,  999.0,    0.9,  -41.7,  999.0,  -41.8,  -41.6,  -41.9,  -41.7,  -41.5,  -41.7,  -41.8,  -41.3,  999.0,  -41.8,  -40.9,  -41.4,  -41.4,  -41.4,  -41.1,  -41.5,  -41.6,  -42.1,  -41.7,  -41.6,  -41.8,  -41.7,  -42.1,  -42.2,  -41.6,  -41.7,  -42.3,  -42.5,  -41.6,  -42.1,  -42.4,  -42.0,  -41.5
1999/06/03 22:40,  999.0,   -3.6,   -2.9,   -2.7,   -1.5,   -0.5,   -0.2,  999.0,  999.0,   20.8,  999.0,   20.8,  999.0,  999.0,   10.3,   20.1,  999.0,   -3.1,    3.3,    6.7,  999.0,   16.8,  999.0,  999.0,  999.0,  999.0,  999.0,  999.0,  999.0,  999.0,   13.1,  999.0,   11.9,  999.0,   11.5,  999.0,  999.0,   10.1,    9.4,    8.6,    8.4,    7.2,    7.4,  999.0,  999.0,  999.0,  999.0,  999.0,  999.0,  999.0,  999.0,  999.0,  -40.1,  999.0,  999.0,  -41.8,  999.0,  -41.5
1999/06/03 22:50,  999.0,  999.0,   -1.9,   -2.7,   -1.1,    1.4,  999.0,  999.0,  999.0,  999.0,   21.0,  -20.9,  999.0,  -21.7,  999.0,  999.0,   -2.1,  999.0,   -2.3,   -5.3,   -6.3,  999.0,  999.0,   -8.8,  999.0,  999.0,  -28.3,  999.0,   12.3,   -9.9,  999.0,    9.4,  -33.4,  -34.8,  999.0,  -35.0,  -35.1,  -38.0,  -38.2,  999.0,  -39.8,  -39.3,  -40.7,  -42.2,  -41.7,  -41.6,  -41.6,  -42.2,  -42.2,  -41.9,  -42.0,  -41.0,  -41.7,  -41.7,  -41.9,  -42.1,  -42.1,  -42.2
1999/06/03 23:00,  999.0,   -0.7,   -1.9,   -2.0,   -1.6,   -0.3,   -1.2,  999.0,    1.5,    2.0,  999.0,  999.0,   -3.6,   -3.2,  999.0,  999.0,   -2.8,   -9.6,  999.0,  999.0,  999.0,  999.0,  999.0,  999.0,  999.0,  999.0,  999.0,  999.0,  -29.0,  -32.0,  999.0,  -31.7,  -32.6,  -35.6,  -36.2,  -36.7,  -37.5,  -37.6,  -39.0,  -40.1,  -41.8,  -41.8,  -41.3,  -41.5,  -41.7,  -42.0,  999.0,  -41.9,  -42.1,  -42.3,  -41.8,  -42.3,  999.0,  -42.2,  -42.2,  -41.9,  999.0,  -41.5
1999/06/03 23:10,  999.0,   -0.7,   -0.1,   -2.9,   -2.2,  999.0,  999.0,   -5.3,  999.0,    2.7,  999.0,  999.0,  999.0,  999.0,  999.0,  999.0,  999.0,  999.0,  999.0,  999.0,  999.0,  999.0,  999.0,  999.0,  999.0,  999.0,  -27.2,  -29.5,  -30.8,  999.0,  -33.9,  -34.4,  999.0,  -37.3,  -37.4,  -38.1,  -40.1,  -39.9,  -41.9,  -42.5,  -41.8,  -41.7,  -41.9,  -42.0,  -41.8,  -41.6,  -41.9,  -42.2,  -42.3,  -41.7,  -42.0,  -42.4,  -42.7,  -41.5,  -41.8,  -42.2,  -41.3,  -41.4
1999/06/03 23:20,  999.0,   -0.9,   -2.0,   -1.3,   -1.4,   -0.6,    0.5,   -2.0,    0.3,  999.0,  999.0,  999.0,  999.0,  999.0,  999.0,  999.0,  999.0,  999.0,  999.0,  999.0,  -28.0,  -32.8,  -37.8,  999.0,  -28.3,  -29.0,  -35.8,  -35.5,  -40.3,  -32.4,  -38.6,  -41.8,  -41.5,  -41.6,  -38.9,  -40.1,  -42.0,  -40.3,  -41.3,  -41.3,  -41.6,  -41.9,  -41.5,  -41.9,  -41.9,  -41.7,  999.0,  -41.9,  -41.0,  -41.8,  -42.0,  -41.3,  -41.5,  -41.3,  -41.7,  -41.2,  -40.8,  -41.8
1999/06/03 23:30,  999.0,   -0.4,   -1.8,   -2.4,   -3.3,   -4.8,   -1.9,  999.0,  999.0,  999.0,  999.0,    2.5,  999.0,  999.0,   20.7,   20.3,   -1.0,  999.0,  999.0,  -26.1,  -17.4,  -18.9,   -1.4,  -32.3,  -33.5,  -34.4,  -35.8,  -35.6,  -14.2,  -35.1,  -39.4,  -17.7,  -26.2,  -40.9,  -41.2,  -31.2,  -41.8,  -41.7,  -34.5,  -20.6,  999.0,  -20.7,  -41.5,  -27.8,  -27.7,  -41.6,  -41.6,  -42.0,  -41.5,  -41.7,  -42.1,  -31.1,  -41.5,  -31.4,  -20.8,  -27.4,  -41.5,  -41.2
1999/06/03 23:40,  999.0,   -0.8,   -3.6,  999.0,  999.0,  999.0,  999.0,  999.0,  999.0,  -20.9,  -21.1,  999.0,  -23.3,  -27.4,    2.8,  999.0,    7.4,  999.0,  999.0,    1.6,  999.0,  999.0,  999.0,  999.0,  999.0,  999.0,  999.0,  999.0,    1.3,    1.1,    0.7,    1.6,    0.2,    0.7,    0.7,    1.2,    0.7,    0.2,    0.8,    1.0,    0.6,    0.9,    1.2,    0.9,    0.8,    0.9,  999.0,    1.3,    1.2,    0.8,    1.1,    0.9,  999.0,    0.8,    1.5,  -20.5,  -13.7,    0.6
1999/06/03 23:50,  999.0,   -1.0,   -2.2,  999.0,  999.0,   -1.0,  999.0,  999.0,    0.9,    0.2,  999.0,   -3.4,  999.0,  999.0,  999.0,  999.0,  999.0,  999.0,  999.0,  999.0,  999.0,   10.5,  999.0,  999.0,    4.8,    5.2,  999.0,    1.5,    1.4,    0.4,    0.6,    1.0,    0.6,    0.4,    0.5,    1.0,  999.0,    1.1,    0.9,    0.3,    0.4,    0.6,    0.6,    0.6,    1.1,    1.0,    0.7,    0.6,  999.0,    1.7,    1.2,    1.1,    1.2,    1.2,    0.5,  999.0,  999.0,  999.0
